GFSFLT2_sfc_dewp_000.txt.gz
Dewpoint
63 63 64 65 65 66 66 67 67 67 66 67 66 66 65 64 63 63 62 62 61 62 62 63 63 63 63 63 64 65 63 63
61 61 61 60 61 64 65 66 66 66 65 64 64 64 63 62 60 61 61 61 61 61 60 60 60 59 59 60 61 62 61 61
61 60 59 58 58 62 64 65 66 66 64 64 62 59 57 57 60 60 61 60 60 59 59 59 58 57 58 58 58 58 59 60
61 61 59 58 57 59 60 61 63 63 63 61 59 58 57 58 59 60 59 59 59 59 57 56 53 52 53 55 54 55 57 57
62 61 60 59 59 59 59 59 60 61 61 60 59 58 57 57 56 56 55 57 54 55 54 54 53 52 53 54 54 55 55 57
61 61 61 60 60 60 59 59 59 59 59 59 58 56 55 55 55 55 55 55 53 53 54 54 54 54 53 53 54 54 55 57
56 57 58 57 58 58 58 59 59 59 59 58 57 56 55 55 55 55 55 54 54 53 51 50 49 50 51 53 53 53 55 56
54 56 57 55 52 52 53 55 57 57 57 57 56 56 55 55 55 55 54 54 52 49 47 46 46 47 48 47 47 48 52 52
52 54 55 54 52 51 50 50 50 50 52 52 53 55 55 55 54 54 54 52 48 48 45 45 43 43 41 43 44 45 49 46
51 52 53 53 52 52 51 50 49 48 49 50 52 53 52 50 51 51 52 49 48 47 38 37 39 39 40 39 39 39 40 39
48 48 51 49 50 51 50 49 48 46 46 49 50 51 50 47 46 47 47 44 43 44 37 39 37 36 36 37 37 37 37 37
41 44 47 45 42 41 40 39 39 43 43 44 48 49 49 48 46 46 45 42 41 39 38 39 38 37 36 36 36 37 38 37
34 36 37 37 37 37 37 37 36 37 39 41 43 47 48 48 46 45 46 43 41 40 39 38 37 38 36 35 36 37 36 36
32 31 32 33 34 34 35 34 35 35 36 37 39 41 45 47 46 43 43 44 41 40 39 38 37 38 34 34 30 32 33 37
32 32 32 34 35 35 35 35 36 35 35 36 36 39 41 45 45 44 42 43 42 41 39 38 36 38 37 33 33 30 33 34
33 34 35 35 37 36 36 35 35 36 37 37 37 39 39 40 44 45 42 41 42 42 40 39 36 35 37 38 35 34 24 22
39 39 38 38 38 38 38 37 39 40 40 40 40 40 39 39 40 41 42 41 41 40 39 38 35 34 30 32 31 34 34 28
38 37 37 38 38 37 36 35 36 37 36 38 40 40 38 37 39 39 37 36 34 34 34 32 32 33 32 33 32 28 26 27
38 37 37 37 38 33 32 34 34 34 34 36 37 37 34 34 34 35 36 37 38 38 37 37 37 38 36 35 35 35 35 34
38 38 37 39 37 31 33 35 36 35 35 35 36 33 34 37 38 38 38 39 39 39 39 40 40 40 39 38 37 36 36 34

GFSFLT2_sfc_dewp_003.txt.gz
Dewpoint
64 63 64 66 66 66 66 67 67 67 67 66 66 66 65 64 63 62 62 62 62 62 62 62 62 62 62 62 63 64 65 64
63 63 61 62 63 65 66 66 67 66 65 64 64 64 62 62 60 61 61 62 61 61 60 60 59 60 60 60 60 61 61 61
62 61 60 59 61 62 64 65 66 66 64 63 62 62 60 59 60 60 60 60 60 59 58 57 56 56 58 57 57 55 55 56
61 62 61 59 57 62 63 63 64 66 64 64 62 62 61 60 60 60 60 60 59 59 58 56 53 53 55 56 56 57 57 57
60 62 62 60 58 61 61 61 63 64 65 65 63 63 63 62 61 60 60 59 58 57 58 59 59 59 58 58 57 56 55 57
62 62 63 64 62 61 61 60 61 62 63 64 64 62 62 61 59 59 61 60 60 60 60 58 57 57 55 55 54 53 51 53
63 64 64 65 63 62 62 62 61 62 63 63 62 61 61 60 59 59 60 60 59 59 57 50 48 48 51 50 48 49 51 45
61 61 62 61 59 61 60 61 61 62 62 63 63 61 61 59 59 59 59 59 59 57 51 46 46 48 48 46 45 46 48 46
57 59 60 60 57 55 55 54 55 57 58 61 60 60 59 59 59 59 59 59 59 53 49 47 45 45 44 44 45 45 45 43
54 55 57 58 57 56 55 55 55 53 53 54 56 56 57 58 57 57 58 59 57 53 49 44 40 41 42 40 40 41 42 42
52 55 55 56 55 53 54 55 53 52 52 51 53 54 55 56 54 54 56 54 54 52 48 45 39 40 38 39 40 38 40 36
51 51 52 53 50 48 45 45 45 46 46 47 49 50 53 54 53 53 53 50 50 48 47 43 40 40 34 34 39 39 39 39
47 46 47 45 41 41 41 41 40 41 40 43 44 44 48 51 50 51 52 50 49 49 46 45 41 42 39 38 38 41 41 38
41 39 39 38 38 40 41 41 40 40 41 43 43 44 44 44 48 48 49 48 50 50 48 44 42 43 37 37 34 35 37 39
37 38 40 42 42 39 40 41 40 38 36 37 39 43 43 44 45 45 47 48 47 49 49 47 42 42 43 37 34 32 33 37
43 42 40 40 41 39 39 36 35 37 38 37 39 42 43 42 43 44 45 46 47 47 47 48 46 42 41 39 41 37 33 31
43 41 41 41 39 39 39 40 39 39 38 39 39 40 42 41 41 42 43 43 44 46 46 46 44 43 40 39 37 34 34 27
43 41 41 42 40 39 40 41 41 39 39 38 37 38 39 39 39 41 40 40 40 40 40 41 40 39 37 36 33 30 28 29
41 41 40 42 42 38 40 42 42 39 38 37 37 36 37 38 39 40 39 40 40 40 41 41 40 40 40 39 39 38 37 36
41 40 40 42 43 39 40 41 39 37 38 38 37 36 37 39 39 39 40 41 41 41 41 41 40 39 39 39 38 38 38 38

GFSFLT2_sfc_dewp_006.txt.gz
Dewpoint
58 58 62 66 66 66 67 67 67 66 66 65 66 66 65 64 63 62 62 62 62 61 61 61 61 61 60 61 62 62 61 61
58 60 58 60 60 65 65 66 66 65 64 63 64 64 62 61 59 60 61 60 60 60 59 59 59 59 59 58 58 59 58 59
60 58 60 60 58 60 63 64 65 65 64 62 62 60 60 58 60 59 60 59 59 58 57 55 54 57 57 57 58 54 55 55
60 62 61 61 56 61 61 60 60 62 62 63 60 62 61 59 60 59 58 58 57 57 57 58 56 49 51 56 51 55 52 53
59 63 63 61 58 58 56 57 59 60 64 64 63 62 61 60 59 57 58 58 54 54 55 52 55 53 50 53 51 52 47 47
60 61 63 64 58 56 57 56 57 57 59 64 62 60 60 60 56 55 55 54 56 55 54 56 52 49 49 49 48 46 41 44
61 63 63 61 62 58 59 59 57 59 58 59 61 58 58 56 55 53 53 53 53 54 53 50 45 42 44 44 43 44 46 41
62 63 63 58 58 60 58 58 55 55 54 55 59 60 57 54 52 49 49 49 50 52 51 48 44 42 42 44 43 42 43 44
61 61 58 57 55 55 53 51 52 50 50 54 55 56 54 54 50 50 49 50 53 54 53 49 45 40 41 41 42 43 40 42
58 56 53 54 53 53 51 51 53 50 51 51 54 54 55 54 50 49 50 51 50 50 49 47 45 41 40 38 39 39 40 41
56 55 47 48 52 51 52 53 49 45 47 45 48 50 51 53 49 49 52 50 49 49 48 48 46 41 38 38 40 38 38 35
54 49 49 51 51 50 45 45 46 45 43 42 44 44 47 49 48 50 51 50 49 47 49 47 45 44 35 34 38 39 39 38
48 48 46 44 42 40 40 40 41 42 41 45 46 45 45 47 45 47 48 47 48 51 50 49 48 46 43 40 39 41 43 38
43 40 42 41 40 42 43 44 42 43 41 43 42 42 41 40 44 43 44 44 46 48 49 48 47 47 44 41 37 37 38 40
41 42 42 43 42 40 41 42 40 39 39 37 38 40 39 41 42 43 44 44 42 44 46 46 44 46 48 43 38 36 36 37
43 42 42 41 43 41 43 39 38 40 40 38 38 38 38 39 40 43 44 43 43 42 40 44 44 43 43 43 46 44 39 36
45 43 42 42 41 43 41 42 40 40 39 38 37 36 38 38 41 42 43 42 43 45 45 45 44 44 42 42 44 43 42 39
44 41 41 42 42 42 43 44 42 39 37 35 34 35 35 38 39 42 43 42 42 42 43 44 43 43 42 41 40 38 37 37
41 40 39 41 42 40 40 41 41 39 38 35 36 34 35 38 41 41 40 40 40 42 42 42 40 40 40 39 39 39 38 38
42 40 38 38 39 38 38 41 41 38 37 37 36 36 38 41 40 40 40 40 40 41 41 40 39 40 39 39 39 40 39 38

GFSFLT2_sfc_dewp_009.txt.gz
Dewpoint
53 55 61 66 66 66 66 66 66 66 65 65 66 65 64 63 62 62 62 61 61 60 60 60 60 60 60 60 60 62 61 59
55 55 54 57 61 65 65 66 66 64 64 63 64 64 63 61 60 61 60 60 60 58 58 58 57 59 58 58 59 60 58 53
55 55 55 55 53 59 63 65 66 65 64 63 62 59 58 59 61 59 59 58 58 58 57 56 56 57 58 57 59 53 53 50
57 58 57 55 49 55 55 53 56 58 59 60 57 60 59 58 59 61 60 59 59 59 58 59 59 49 50 57 51 50 48 47
55 62 60 56 53 53 52 52 54 55 59 60 59 59 58 57 56 55 55 57 52 54 53 51 54 51 48 49 48 48 44 43
55 61 59 58 54 53 53 52 53 54 56 58 58 56 57 57 53 52 52 50 52 52 51 54 52 47 45 46 46 44 38 39
54 60 57 54 56 55 56 56 54 56 54 55 55 55 56 53 52 50 49 48 48 50 49 49 48 46 43 44 43 43 44 42
54 57 56 52 53 55 56 54 51 51 50 51 54 54 55 52 50 48 47 47 47 48 50 50 48 45 43 43 44 42 41 44
54 56 54 52 52 52 50 47 49 49 48 51 51 52 53 54 51 50 48 50 53 50 49 48 48 46 43 41 42 44 43 43
51 53 51 51 50 49 48 48 49 48 48 49 50 50 51 53 49 50 51 52 50 49 47 46 46 45 46 42 41 41 41 42
50 55 46 47 50 48 49 50 47 43 44 43 48 47 48 50 48 50 55 51 52 51 50 50 47 47 45 45 43 41 43 37
50 52 44 47 48 49 43 43 44 44 43 43 46 45 48 48 47 50 50 47 48 50 53 50 51 50 44 43 47 44 42 44
49 48 48 45 43 42 40 41 42 43 42 45 46 44 43 44 42 43 46 44 47 50 50 50 49 50 49 48 48 48 48 43
46 44 42 41 41 43 45 45 43 43 43 43 42 43 42 41 42 41 42 41 47 49 50 47 47 49 47 47 45 45 45 45
43 43 43 44 43 41 41 41 42 40 41 41 41 42 39 39 40 41 45 44 42 47 46 46 43 45 49 45 42 40 43 43
44 43 42 42 45 42 44 41 40 41 42 41 39 39 37 36 38 40 43 43 44 44 39 46 45 42 43 40 45 46 42 42
45 43 42 43 42 43 43 44 43 43 42 41 42 38 38 36 37 41 43 41 43 45 44 43 42 41 40 41 43 43 43 41
45 42 40 42 44 44 45 45 43 40 39 38 36 37 35 37 36 41 42 42 42 41 42 43 43 42 41 40 40 39 39 38
43 41 40 41 43 42 41 40 42 41 39 37 37 34 35 39 40 41 40 40 41 43 44 41 41 41 41 39 39 38 38 37
44 43 41 40 42 42 43 42 41 39 39 37 36 36 37 39 40 40 40 41 41 41 39 40 39 40 39 39 40 39 39 39

GFSFLT2_sfc_dewp_012.txt.gz
Dewpoint
56 60 64 66 66 67 67 67 67 66 66 66 65 65 65 63 62 61 61 60 60 59 59 59 59 60 61 61 61 61 59 59
57 59 60 62 63 65 66 66 66 65 65 65 65 65 64 63 63 61 59 58 58 57 57 57 57 58 60 60 60 60 56 57
57 55 58 62 61 62 65 66 66 65 64 64 63 62 62 61 61 61 59 59 59 59 58 58 58 59 59 60 60 54 54 51
59 60 59 57 50 61 63 61 63 63 62 62 62 62 60 59 61 62 62 61 61 61 61 61 60 55 55 59 56 53 50 49
60 62 61 59 58 56 58 59 59 62 64 61 62 60 63 61 61 61 61 61 60 60 58 58 55 54 51 51 50 48 49 47
60 61 61 60 59 59 60 59 58 60 59 61 61 60 60 59 57 55 55 54 54 54 54 55 55 50 48 48 48 48 45 46
57 61 60 62 59 62 61 60 59 59 58 59 59 58 59 58 56 55 54 54 53 53 52 52 52 50 49 46 45 46 47 46
60 60 60 57 58 58 60 58 58 58 57 56 57 57 57 57 55 55 54 53 53 52 51 52 52 51 49 48 46 45 44 46
58 60 58 57 57 57 57 53 52 54 55 55 54 55 55 56 55 55 54 55 54 53 53 51 51 50 49 49 48 46 46 46
61 55 57 56 57 54 54 55 55 54 55 54 54 53 53 55 54 55 56 56 55 53 53 51 50 50 49 49 47 45 45 47
53 58 56 54 55 53 54 54 53 52 51 53 53 52 54 53 53 54 55 53 53 52 50 52 51 50 48 47 48 47 45 41
54 58 55 53 55 53 51 50 51 51 52 50 51 51 50 51 49 51 52 49 49 50 50 49 49 49 47 46 48 48 47 47
53 55 53 51 50 50 49 49 49 50 49 49 48 49 48 48 48 47 47 46 48 48 47 46 46 47 46 45 46 47 49 48
49 47 49 48 46 49 49 49 48 48 49 49 49 48 47 43 46 46 46 46 46 47 48 45 44 45 44 43 40 41 43 45
46 46 46 48 49 46 46 47 47 46 45 46 47 47 45 44 45 46 46 46 44 45 45 44 43 43 44 42 38 37 39 42
47 47 45 46 48 47 46 45 45 47 49 46 45 45 45 42 42 45 45 46 44 45 42 45 44 41 43 43 43 42 40 39
49 46 45 46 47 47 47 48 48 46 47 46 44 44 43 41 42 43 44 44 44 45 44 44 44 42 41 40 39 38 39 38
49 46 44 45 47 48 46 45 45 45 45 43 41 40 40 41 41 44 44 44 44 44 44 42 42 42 41 41 39 38 37 35
47 46 44 45 45 45 47 47 46 43 42 41 39 39 40 39 42 42 42 42 42 42 43 42 41 40 39 40 40 40 38 36
47 45 44 44 46 46 47 46 43 42 42 40 40 39 40 41 41 41 41 41 41 41 41 40 39 40 38 39 39 39 39 39

GFSFLT2_sfc_dewp_015.txt.gz
Dewpoint
62 64 65 66 66 66 66 66 66 66 66 66 66 65 65 64 63 61 60 59 58 57 59 60 60 60 61 61 61 61 58 56
59 61 62 63 64 65 65 65 65 64 64 65 64 64 64 64 63 62 61 59 58 58 59 60 60 59 59 59 60 60 52 57
57 58 60 60 61 63 65 65 64 64 64 64 63 63 63 61 62 62 61 61 61 61 61 60 60 59 59 60 60 56 54 58
54 54 60 59 57 61 62 63 63 63 63 62 62 61 62 60 61 61 61 61 61 61 62 61 60 57 52 57 54 52 48 52
57 56 55 54 55 59 61 61 62 62 61 58 57 59 59 57 60 59 59 61 59 59 58 59 56 54 50 46 46 45 47 47
57 56 55 55 57 57 56 55 57 58 58 57 56 57 54 55 52 51 52 52 54 53 52 51 52 51 48 46 45 45 46 46
57 56 56 54 56 57 55 57 55 57 55 55 55 56 53 53 54 52 51 52 50 49 49 49 51 50 49 48 45 44 44 45
57 57 58 54 56 56 54 53 54 55 53 54 54 54 53 53 52 53 51 52 52 51 50 50 51 51 50 48 47 44 43 44
61 62 61 57 54 53 54 47 50 52 51 51 52 52 52 53 53 53 53 54 52 52 52 51 50 50 49 49 49 47 45 44
61 62 61 59 57 52 51 51 49 50 52 53 51 52 51 50 50 50 52 52 52 51 51 51 50 50 49 49 49 48 46 45
57 60 59 57 55 51 51 47 46 47 49 49 49 49 49 47 46 47 50 49 48 48 48 48 47 47 46 46 47 47 47 46
59 59 57 53 50 49 48 48 48 48 47 46 48 46 46 45 44 46 45 45 46 46 45 45 45 45 45 44 46 48 49 49
51 52 47 47 46 45 45 45 45 46 46 47 45 44 44 43 44 44 45 44 44 44 45 45 45 45 44 43 43 44 44 46
46 44 47 45 46 46 46 46 46 46 45 46 46 45 43 41 42 43 43 44 43 43 42 43 43 44 42 41 39 39 40 42
43 43 43 45 45 44 43 43 43 45 46 44 45 44 42 41 41 43 43 44 43 42 43 42 42 42 42 42 39 37 38 41
43 43 43 44 44 44 43 45 45 46 45 44 42 42 41 41 41 42 43 43 42 43 44 43 43 41 42 41 40 39 36 33
43 43 43 43 43 44 45 43 43 44 44 41 40 40 40 40 41 41 42 43 43 43 42 42 42 41 41 41 39 37 37 35
43 42 43 43 44 43 42 43 43 42 40 40 39 39 40 39 40 41 42 42 41 42 42 41 41 41 41 40 40 38 37 37
43 43 42 44 44 45 43 43 41 40 38 38 37 38 38 39 40 41 41 41 40 40 40 40 40 39 39 38 38 37 38 37
43 42 43 43 44 43 42 41 42 40 37 37 37 39 39 38 38 39 40 40 39 39 39 38 38 38 38 37 38 38 39 39

GFSFLT2_sfc_dewp_018.txt.gz
Dewpoint
64 65 66 66 66 66 66 66 67 67 67 66 66 65 65 64 63 61 59 58 57 58 60 60 60 60 60 60 59 61 55 53
61 63 63 63 64 65 65 65 65 65 65 64 64 64 64 64 63 62 62 60 59 60 60 60 60 60 60 60 60 58 53 60
59 60 61 61 62 64 64 65 64 64 64 64 63 62 62 61 62 61 62 61 61 62 62 62 60 60 60 60 58 53 49 54
57 58 58 59 59 62 62 62 62 62 62 62 62 61 61 61 61 62 62 62 62 62 62 62 61 57 55 53 47 46 47 48
56 59 59 57 57 60 61 62 62 62 62 61 60 60 61 59 59 59 58 59 58 57 57 55 55 55 53 47 45 44 46 46
54 56 57 55 55 59 60 60 61 61 59 57 56 55 54 53 52 51 52 51 52 52 51 49 49 51 50 48 46 44 45 45
55 55 54 55 56 56 56 56 57 57 55 55 55 54 52 53 52 52 52 52 51 51 50 50 50 51 50 50 48 46 44 44
58 58 57 54 55 54 55 53 56 54 53 54 54 55 52 52 52 52 52 53 52 51 51 51 51 50 50 50 50 48 46 44
57 58 57 56 54 54 53 48 54 52 51 52 52 53 52 50 49 47 49 50 50 50 50 49 48 48 47 48 49 48 48 46
59 60 59 57 55 53 51 49 50 51 52 52 51 50 48 46 44 45 48 47 47 47 47 46 45 45 46 45 46 47 47 46
60 60 57 56 56 51 51 48 48 49 49 49 47 47 46 44 44 45 45 45 45 45 44 44 44 44 42 43 44 45 46 47
59 59 59 55 50 48 50 48 49 47 47 46 45 45 45 44 45 45 45 44 44 43 42 43 43 43 42 42 44 44 45 45
52 53 50 49 46 46 47 46 45 45 46 46 45 44 43 43 43 43 44 44 43 42 43 42 42 43 42 40 41 41 42 41
47 44 45 45 45 49 49 46 46 47 47 44 43 42 41 40 41 42 43 42 41 41 41 42 43 43 41 41 37 37 40 38
42 42 43 44 45 44 44 44 45 45 44 42 41 41 41 41 41 41 41 42 42 42 43 42 41 42 42 40 37 35 37 37
43 43 42 43 44 43 43 44 43 44 43 40 39 40 40 40 41 41 41 43 42 43 42 42 41 40 41 41 40 39 35 34
42 42 43 43 43 43 44 41 43 43 41 39 38 40 40 40 41 41 41 42 41 42 41 40 40 39 40 40 36 36 38 36
42 43 43 43 44 43 42 42 41 40 38 37 39 39 39 39 39 40 40 39 39 39 39 39 39 39 39 39 38 36 35 35
43 43 44 45 44 43 42 40 39 37 37 37 39 38 38 37 38 39 39 39 39 38 38 39 38 37 37 37 37 37 38 37
43 41 41 42 43 41 41 40 40 39 38 37 39 37 36 36 38 38 39 38 38 38 38 37 38 37 36 37 37 38 39 39

GFSFLT2_sfc_dewp_024.txt.gz
Dewpoint
68 67 68 68 67 67 66 67 67 67 66 66 65 64 64 63 62 61 61 61 62 62 63 63 62 62 62 61 58 58 47 56
63 64 65 63 64 65 65 65 65 65 65 65 64 63 63 63 62 62 63 62 62 62 63 63 63 62 61 60 56 52 45 47
60 61 61 60 61 63 65 65 65 64 64 63 62 60 60 60 62 62 63 63 63 63 62 62 60 58 59 59 53 47 44 45
59 59 59 60 61 62 61 62 62 62 62 61 61 60 60 60 61 62 60 57 58 57 57 55 53 52 53 54 49 48 46 45
58 59 59 59 59 61 60 61 61 61 60 60 60 60 59 59 56 53 52 53 51 51 50 50 50 51 51 51 50 50 48 47
57 57 57 58 58 60 59 60 60 60 60 60 59 56 54 51 52 51 51 51 50 50 50 49 47 47 47 47 48 48 49 48
55 57 56 56 57 58 58 59 60 60 60 57 56 53 52 51 51 49 49 49 48 47 47 45 45 45 45 45 46 47 48 48
56 57 57 55 55 57 57 58 58 59 55 54 54 52 51 49 46 46 47 46 46 46 44 43 42 43 42 43 45 45 45 46
57 58 56 56 54 56 58 54 56 53 53 53 53 51 46 44 44 45 45 45 44 44 43 42 41 41 40 42 44 44 44 45
59 60 58 58 56 56 52 54 52 51 50 48 47 46 45 45 44 44 45 44 43 43 42 41 40 40 41 42 42 43 43 45
59 59 57 58 57 53 50 49 49 46 45 45 45 45 45 43 44 44 45 42 42 41 40 41 39 41 42 42 42 41 43 41
59 59 58 56 53 51 51 47 46 46 45 48 42 44 44 44 43 42 42 40 41 41 40 41 41 42 42 41 41 41 42 40
58 59 57 48 50 48 48 46 48 51 44 43 43 42 41 40 40 41 42 41 41 42 41 41 42 42 40 39 40 40 39 38
54 53 50 47 49 50 49 50 48 43 41 41 40 40 40 40 40 40 41 41 40 41 40 40 40 41 39 38 34 36 37 35
43 44 44 47 48 47 45 45 44 41 39 38 39 40 40 40 40 41 41 41 40 40 39 38 38 39 39 38 33 32 34 35
42 42 43 44 43 42 42 42 43 42 39 38 38 39 40 40 40 41 40 39 39 39 40 38 38 36 38 39 37 36 32 29
42 43 43 43 44 44 43 42 41 39 38 37 39 40 40 40 39 38 37 38 37 37 37 36 37 36 35 36 35 36 35 34
43 44 44 44 43 42 42 40 38 37 37 38 40 39 40 38 38 38 37 37 36 36 36 36 36 36 35 35 35 34 33 33
42 42 42 42 40 40 40 40 38 37 37 37 37 38 38 35 37 37 37 37 37 37 36 36 35 35 34 33 34 33 34 34
40 39 40 40 40 39 40 39 38 38 38 38 38 37 36 35 36 38 38 38 37 37 37 36 35 34 33 33 32 32 30 32

GFSFLT2_sfc_dewp_027.txt.gz
Dewpoint
68 68 68 68 68 67 66 66 67 67 66 66 65 64 64 63 63 62 62 63 63 63 63 63 62 62 61 60 57 55 47 46
66 68 67 67 66 66 65 65 65 65 65 65 63 63 63 64 61 63 63 63 63 62 62 60 59 59 60 59 56 54 49 46
66 66 66 65 64 64 64 65 65 65 64 63 62 61 61 61 62 63 61 60 61 60 58 57 57 57 58 58 56 51 51 49
64 64 63 62 60 63 63 62 62 62 62 62 61 62 62 61 61 59 58 58 57 57 56 56 53 49 48 53 48 50 49 50
60 62 62 61 60 61 61 61 62 62 62 62 63 62 63 61 55 55 55 54 51 51 49 47 49 47 46 47 46 47 46 46
58 59 60 61 60 60 60 61 62 62 62 63 63 61 57 56 54 52 52 50 51 49 47 48 47 44 44 43 45 44 42 41
57 59 59 59 60 61 61 61 62 62 62 61 58 56 56 53 51 49 49 49 48 46 45 44 43 42 42 42 41 43 44 42
58 58 59 58 58 60 61 62 62 61 60 58 57 56 55 50 49 47 47 46 46 45 45 43 41 41 39 42 42 42 43 45
58 59 59 58 58 59 57 56 57 58 58 57 55 51 50 50 48 47 47 47 47 45 43 41 39 38 39 41 41 43 42 45
60 59 59 59 59 57 55 55 57 56 55 51 50 50 50 49 48 46 46 45 44 42 41 39 39 41 41 39 40 40 44 44
59 60 60 59 57 55 53 53 52 49 48 47 49 50 48 46 46 44 44 43 44 42 41 42 40 39 35 37 36 36 44 39
60 61 59 56 54 53 52 51 48 47 48 50 48 45 45 44 43 44 43 42 42 41 41 39 40 40 34 35 35 39 43 40
60 59 57 54 52 51 50 48 50 50 44 44 44 43 43 44 42 43 43 41 42 41 39 39 35 40 34 32 33 43 41 38
59 57 52 51 48 49 51 51 48 43 42 43 42 43 42 41 43 42 42 39 41 41 41 37 37 41 36 32 27 27 37 34
57 54 49 49 50 50 48 46 43 41 40 40 41 42 41 42 43 42 42 41 39 40 41 40 35 37 41 34 29 26 30 30
49 50 48 48 48 46 47 45 45 45 42 41 40 42 41 41 41 42 42 41 39 38 38 39 37 32 34 34 35 33 26 25
46 46 45 46 47 48 46 45 43 41 41 41 42 43 42 41 41 41 41 39 40 38 39 37 36 34 32 31 30 29 30 29
47 46 45 46 46 46 46 44 43 41 41 41 42 42 43 43 40 41 41 39 39 38 39 38 36 36 33 32 27 26 26 28
46 44 43 44 44 44 44 44 43 42 41 41 41 40 41 41 40 41 40 40 39 39 39 38 37 33 33 29 32 30 30 26
43 42 42 42 43 42 43 43 42 41 42 41 41 41 40 41 40 40 40 40 39 39 38 37 38 34 32 31 31 29 30 28

GFSFLT2_sfc_dewp_030.txt.gz
Dewpoint
67 66 68 69 68 67 67 67 67 67 67 66 65 64 64 63 63 63 63 63 63 62 60 60 60 60 60 58 57 56 47 44
66 64 64 64 64 66 66 66 66 66 66 64 63 64 64 62 63 63 62 63 62 60 59 59 59 59 59 59 57 58 46 45
65 62 62 62 59 62 64 65 65 65 64 64 61 58 58 58 62 61 61 60 59 58 57 57 58 57 57 56 58 44 46 44
63 63 62 60 55 59 59 57 59 60 60 61 60 62 61 59 58 60 58 57 57 57 55 56 51 44 44 50 42 45 43 44
61 62 61 57 56 56 56 58 60 62 63 63 64 63 63 59 55 54 55 55 49 49 46 45 48 45 43 43 42 41 39 38
56 58 60 59 56 56 59 59 61 62 63 64 64 62 62 58 54 54 54 50 50 48 46 48 46 44 43 43 43 41 38 37
54 57 58 59 60 60 61 62 63 64 64 62 61 59 59 55 54 51 51 50 48 48 46 44 44 43 42 43 41 42 42 39
56 55 58 58 60 61 62 62 63 63 63 62 60 58 58 53 51 49 49 48 47 45 45 43 42 42 42 43 43 42 42 42
57 59 58 59 60 61 59 57 58 61 60 60 59 56 54 52 51 50 48 47 47 44 44 43 42 41 42 40 39 40 39 41
59 60 60 60 59 59 59 58 59 59 58 56 53 51 51 51 49 47 46 45 44 44 43 43 40 40 38 34 35 34 34 40
60 61 60 59 58 58 58 57 55 55 52 50 51 50 49 47 46 46 46 44 45 43 40 39 36 36 34 30 32 31 29 32
60 60 60 59 57 57 54 54 51 48 48 49 47 46 47 46 45 47 45 42 40 40 40 37 36 35 31 28 32 31 32 37
60 61 60 58 57 52 50 49 48 49 46 46 46 45 44 46 44 44 42 40 41 41 38 37 34 37 36 30 30 32 40 38
60 59 59 58 55 52 50 49 49 47 45 46 45 44 44 44 44 42 40 38 40 40 39 35 33 35 36 34 26 27 28 34
58 58 57 54 52 51 51 50 47 44 44 43 43 44 43 44 43 41 41 39 36 39 38 36 33 33 35 33 30 25 28 28
57 54 51 50 51 49 48 46 45 47 47 44 42 44 43 40 39 41 42 40 40 38 34 37 35 32 31 30 33 31 26 25
55 52 48 49 48 47 48 47 46 44 44 42 44 44 42 40 41 42 42 41 40 40 38 39 35 33 31 30 29 27 26 24
51 48 46 47 48 48 48 47 44 41 40 38 35 36 38 40 42 43 43 42 40 39 39 38 36 34 31 29 27 25 24 23
48 46 46 47 47 45 43 41 39 35 36 36 38 36 36 37 40 43 42 41 41 39 38 38 35 33 31 29 28 27 26 24
46 44 43 43 42 40 40 38 39 38 39 39 36 34 35 39 41 40 39 39 38 38 37 37 37 35 32 31 27 26 25 25

GFSFLT2_sfc_dewp_033.txt.gz
Dewpoint
66 65 68 68 67 67 67 67 67 67 66 65 64 65 65 64 64 63 63 63 61 60 60 60 59 59 59 60 60 60 51 45
67 66 63 64 64 66 66 66 66 66 65 64 63 63 63 63 63 61 62 61 60 59 59 59 59 59 57 57 57 58 45 43
63 59 60 60 60 63 65 66 66 64 63 63 61 56 58 58 61 62 61 60 58 57 56 56 57 58 56 54 57 44 43 41
58 59 59 57 52 57 57 58 57 59 58 59 59 59 60 56 57 60 59 58 57 55 56 54 53 45 44 50 43 45 41 40
57 60 59 54 55 54 54 58 58 59 61 62 63 59 60 59 55 54 55 56 51 49 48 46 49 47 45 46 45 44 41 40
56 57 57 57 53 53 56 57 59 61 62 63 62 61 60 57 52 53 53 50 51 48 47 50 48 47 46 46 46 44 41 41
53 55 57 58 58 58 60 61 62 63 64 62 59 59 62 57 54 51 51 49 48 49 48 47 48 46 45 45 44 44 44 41
53 54 57 58 59 62 64 64 62 61 62 63 62 61 61 55 55 50 50 50 49 46 46 45 45 45 44 44 42 40 40 41
54 57 59 60 61 59 58 57 57 59 61 62 60 60 58 58 55 52 50 50 49 47 47 46 44 41 40 39 37 36 34 34
57 56 59 60 58 55 57 60 60 59 60 59 56 56 56 54 54 53 48 48 47 47 44 41 40 39 38 37 32 31 34 34
58 59 60 60 60 60 60 59 57 57 54 55 53 51 51 50 48 48 49 46 46 43 42 41 38 36 31 32 34 30 33 28
59 60 60 60 60 59 57 56 55 53 50 49 49 48 49 48 48 49 46 44 43 43 43 39 36 33 28 32 35 33 32 35
59 61 60 58 56 55 54 53 50 50 48 49 49 48 47 48 46 46 45 42 43 43 39 38 34 35 32 32 33 37 36 34
59 59 59 57 55 54 52 50 50 48 48 49 47 47 46 45 46 43 43 41 40 39 41 37 35 35 32 31 29 28 28 31
59 59 58 56 54 51 50 51 50 47 46 46 45 46 44 43 43 42 41 39 36 39 39 38 34 34 35 31 27 26 27 28
58 57 55 53 52 49 50 45 44 46 46 45 45 45 43 41 40 41 41 40 40 39 35 38 37 33 32 28 32 30 25 23
55 54 50 50 50 49 49 46 48 47 46 46 46 45 44 40 40 42 42 40 40 40 40 38 35 33 31 29 29 27 27 25
54 49 47 49 48 49 48 49 45 43 42 40 35 35 36 37 37 39 40 40 40 39 39 38 37 37 35 33 29 27 26 27
51 47 46 48 49 48 48 46 41 38 37 35 36 34 34 35 37 39 37 37 37 37 40 39 38 37 38 35 30 31 29 27
46 45 45 47 46 43 41 37 36 36 37 36 33 32 34 36 35 35 35 35 35 37 38 39 39 39 38 35 32 33 31 29

GFSFLT2_sfc_dewp_036.txt.gz
Dewpoint
67 67 68 67 66 67 67 67 66 66 65 65 65 65 65 65 65 64 63 62 61 60 60 60 60 59 57 57 58 59 53 50
66 66 66 65 64 66 66 66 65 64 64 64 63 63 64 64 63 64 63 61 59 58 57 57 58 57 56 55 57 54 44 43
65 63 63 63 64 65 65 66 65 63 63 63 62 59 61 59 62 62 61 60 58 56 56 54 58 57 57 57 55 45 45 43
62 63 61 60 56 61 61 61 60 59 59 61 62 63 60 57 59 61 60 58 56 55 54 57 54 48 48 52 47 48 45 44
60 62 61 56 55 57 58 59 61 62 63 64 63 63 62 61 58 55 58 58 55 53 52 50 51 50 49 50 48 46 45 44
58 59 60 58 57 57 60 62 63 65 63 63 64 63 62 59 58 58 56 55 52 54 52 52 50 50 48 49 48 47 45 45
57 59 60 60 61 62 63 63 64 65 64 63 64 62 63 60 58 56 55 54 51 49 49 48 50 48 48 47 45 43 41 43
56 57 61 60 63 63 63 65 65 63 63 63 62 61 61 60 55 53 52 50 51 49 50 50 48 47 43 43 44 41 37 40
55 58 60 63 62 61 59 58 59 61 62 62 61 60 58 56 54 53 51 50 51 50 49 47 45 43 41 41 41 35 35 39
57 58 62 60 59 58 58 60 60 60 60 59 57 55 55 55 53 52 51 51 49 49 47 44 43 42 39 38 38 36 34 37
58 61 61 59 60 60 61 60 58 57 56 55 54 53 53 52 52 52 52 50 49 46 46 45 40 38 33 33 38 37 37 33
59 61 61 61 60 60 58 57 56 56 54 53 51 51 52 52 52 51 50 47 47 46 45 42 40 39 34 34 36 38 35 37
60 60 60 59 58 57 56 55 53 53 52 52 52 51 50 50 50 49 47 46 45 43 42 41 40 40 36 34 35 34 32 35
60 59 59 58 57 57 57 54 53 52 52 52 51 50 49 48 47 46 46 44 43 43 42 41 39 39 36 35 31 31 33 31
60 59 59 58 58 55 54 53 53 50 50 49 49 49 48 45 45 44 44 43 42 42 41 40 37 37 38 34 30 28 29 31
60 59 58 58 56 53 52 50 48 49 49 49 48 48 46 44 43 43 44 44 43 43 39 41 38 37 36 35 35 33 28 25
60 59 58 56 53 53 53 52 52 51 50 50 49 49 48 45 44 44 44 44 43 43 43 42 40 38 36 35 34 33 30 28
60 58 52 52 52 52 52 52 49 49 48 47 45 42 42 43 41 43 43 42 42 42 41 40 39 39 38 37 35 33 31 29
54 50 49 51 52 51 52 50 47 43 41 41 41 40 39 41 41 40 39 39 40 40 40 41 40 38 38 38 38 36 33 31
52 48 47 49 51 50 49 45 43 40 43 41 39 38 39 38 36 37 37 37 37 38 39 39 40 39 37 38 38 36 34 32

GFSFLT2_sfc_dewp_039.txt.gz
Dewpoint
66 67 67 67 67 66 65 65 65 65 65 65 65 65 65 65 65 64 62 62 60 59 58 58 58 58 59 58 57 57 46 51
67 65 64 64 65 65 65 64 64 64 64 64 63 64 64 63 64 64 63 61 57 56 55 56 57 55 59 57 56 53 45 51
65 64 62 64 64 64 64 64 63 63 63 62 61 60 61 59 61 62 61 59 56 55 53 57 58 56 57 56 54 46 44 50
64 63 62 61 61 62 62 60 59 59 59 60 60 60 59 56 60 61 60 58 55 56 54 56 54 48 47 52 47 45 44 44
63 62 60 57 59 60 60 59 59 59 60 60 61 60 59 58 57 57 56 57 52 52 51 50 47 48 47 48 48 46 45 44
60 60 57 55 58 58 58 60 62 62 62 62 60 62 61 58 55 56 55 54 50 49 48 47 48 48 47 45 44 42 41 42
56 57 53 54 57 60 61 62 63 63 63 61 59 58 59 57 55 53 51 50 47 47 48 49 47 45 42 42 42 40 35 36
56 56 56 60 62 62 63 63 62 62 62 61 60 59 56 53 52 50 49 48 49 48 47 45 43 43 41 41 40 36 34 34
55 56 60 61 60 58 58 58 60 60 61 60 57 57 55 53 51 48 48 49 48 47 44 44 42 41 39 37 38 36 36 36
55 58 60 58 57 58 59 59 59 59 59 55 53 53 52 51 50 48 49 49 48 46 44 42 40 38 35 33 37 36 37 35
57 60 58 58 58 59 59 57 58 57 55 53 52 52 51 49 49 49 49 48 46 44 43 41 37 37 34 34 35 36 35 35
60 58 59 58 58 58 58 56 56 54 54 52 50 50 51 51 50 48 47 45 44 43 41 40 38 38 33 34 35 35 35 35
59 59 59 58 58 57 56 54 53 52 51 50 49 50 48 49 49 48 45 44 41 41 40 38 38 39 34 35 33 33 31 32
59 59 59 58 58 57 55 52 51 50 49 50 49 48 48 46 45 44 42 41 41 40 39 39 38 37 34 34 30 30 32 30
59 59 58 57 58 56 53 51 51 49 49 48 47 48 46 45 44 42 41 41 39 39 39 38 36 36 36 33 30 28 30 30
60 59 59 57 58 53 50 50 48 47 48 48 47 45 44 43 42 42 42 42 40 41 40 39 38 35 36 35 34 32 29 27
60 60 59 58 57 51 50 50 49 49 49 47 46 45 44 43 43 42 41 42 41 40 40 41 40 37 35 35 34 33 31 28
59 58 58 57 52 51 50 49 47 46 47 47 47 45 42 40 39 39 39 38 37 37 37 38 38 38 37 37 35 33 31 31
58 58 54 51 50 50 49 47 45 44 43 40 39 38 39 37 35 36 36 36 36 36 36 37 38 38 37 37 37 36 36 34
57 53 49 49 49 49 45 40 39 41 39 37 37 38 38 35 35 35 34 34 34 35 35 35 36 38 37 38 38 38 37 34

GFSFLT2_sfc_dewp_045.txt.gz
Dewpoint
64 64 65 66 65 65 66 66 66 66 65 65 65 64 63 63 63 62 62 61 61 61 60 59 59 59 59 58 58 56 49 51
62 62 63 64 63 65 65 65 65 65 65 65 64 65 64 63 62 61 61 60 61 60 61 59 59 59 59 56 54 53 47 48
61 61 63 63 62 63 64 65 65 64 64 64 62 61 61 59 60 60 60 60 61 61 59 57 55 57 57 55 49 43 43 47
61 61 61 63 61 62 61 61 61 60 60 60 60 59 56 59 60 61 59 59 60 58 57 55 49 44 45 47 41 38 39 46
62 60 63 62 59 60 59 59 58 58 59 59 60 59 57 58 57 54 54 53 48 49 47 46 43 42 42 41 38 36 36 41
61 61 62 60 60 60 58 57 58 58 58 58 59 58 55 54 53 54 50 49 48 47 46 44 42 40 38 38 35 35 35 37
62 61 60 58 58 58 58 58 59 61 61 61 60 58 55 54 53 51 48 48 47 45 43 42 40 37 37 36 35 35 35 36
61 60 58 57 57 58 59 61 61 60 59 59 59 58 55 52 49 48 48 48 45 44 41 39 37 35 36 36 34 35 34 34
60 60 56 56 57 59 61 61 61 59 58 58 56 54 51 49 48 48 49 46 44 42 39 38 36 35 34 34 34 35 34 33
59 59 56 59 60 59 59 60 59 58 56 56 54 52 50 48 48 48 48 45 44 42 39 37 37 35 33 33 34 34 33 32
57 58 58 59 58 58 58 58 57 56 53 53 52 51 50 48 49 50 47 45 44 41 40 38 36 35 33 33 33 33 33 31
58 59 58 58 57 56 56 56 55 54 52 51 51 50 49 49 48 47 45 44 43 41 39 39 37 36 32 34 34 33 32 31
58 57 57 57 56 55 54 54 53 53 52 51 50 49 50 48 47 46 43 41 41 39 38 36 37 36 33 34 34 33 31 31
57 57 57 57 56 55 55 54 53 52 51 50 49 50 49 47 45 43 41 41 39 38 38 38 37 36 34 32 30 31 31 31
57 57 57 56 56 55 53 52 51 50 49 48 49 49 48 46 44 42 40 40 39 38 38 37 36 36 36 34 31 29 30 31
57 57 57 56 56 54 52 50 51 51 49 48 48 48 46 44 43 42 41 41 40 41 40 39 37 36 36 36 33 32 30 30
57 58 57 56 56 56 54 52 50 49 48 47 47 45 44 43 43 42 42 41 38 36 36 36 39 37 36 34 34 33 32 31
58 58 57 56 56 56 54 52 49 49 47 46 45 43 42 41 40 39 37 37 36 35 34 33 34 35 36 35 35 33 32 31
58 58 57 57 56 56 54 53 50 49 47 46 43 39 38 38 37 36 37 36 36 34 34 34 35 36 36 36 36 35 35 34
58 58 58 58 58 56 53 51 50 49 47 46 42 39 37 36 38 38 38 35 35 35 36 36 36 35 34 35 35 36 36 36

GFSFLT2_sfc_dewp_048.txt.gz
Dewpoint
64 63 65 66 66 66 66 66 66 66 66 65 65 64 63 63 62 62 62 62 61 60 60 60 60 59 59 59 57 54 48 50
61 62 63 63 64 65 66 66 66 65 65 65 64 64 63 62 62 62 62 62 61 61 60 60 59 58 57 54 52 48 46 48
58 60 63 62 63 64 65 66 65 65 64 64 62 61 59 56 60 61 61 61 60 59 57 56 56 55 53 48 44 40 45 48
59 59 61 62 61 62 62 62 61 61 61 59 59 59 57 59 60 60 61 60 59 57 54 50 46 42 42 42 37 37 39 47
56 56 57 61 59 60 60 59 59 59 59 59 59 57 58 58 54 53 52 52 47 46 44 42 41 40 38 37 37 37 37 38
55 56 55 61 60 59 59 58 58 58 58 59 58 55 55 54 53 52 49 49 46 45 44 41 39 39 37 37 37 36 36 37
56 56 60 61 59 59 58 58 57 58 57 58 59 55 53 53 53 49 48 47 45 43 41 38 37 37 37 36 36 36 36 37
59 61 61 59 58 58 58 58 59 60 59 59 59 58 55 53 50 48 48 46 44 42 39 37 36 36 36 36 36 34 34 37
60 61 58 57 57 57 58 59 61 59 59 59 59 57 54 50 48 48 47 44 42 40 38 37 36 35 34 34 35 34 34 35
60 61 57 56 57 58 59 60 59 58 57 56 55 54 53 48 48 48 46 45 42 40 38 37 36 34 33 34 34 35 33 33
59 59 56 57 58 58 58 58 58 57 56 54 53 51 49 48 49 48 46 45 43 41 39 38 36 34 33 34 34 34 33 31
57 58 57 57 57 56 56 56 56 55 54 53 51 50 49 48 49 48 45 44 42 40 39 38 37 35 32 34 35 33 33 32
57 57 56 57 55 55 54 54 55 54 53 52 51 49 49 48 47 45 44 43 41 39 38 37 37 36 34 35 33 34 33 32
58 57 57 57 57 54 54 54 53 54 53 51 50 49 49 47 46 44 42 41 40 39 38 38 37 36 34 33 31 32 32 33
57 57 57 57 57 55 52 53 53 52 50 49 49 50 49 46 44 42 41 40 39 38 38 37 36 37 36 35 31 29 31 33
57 57 57 57 56 54 52 52 51 52 50 48 49 49 48 46 43 41 41 41 40 40 39 38 38 35 37 36 36 34 31 30
56 57 57 57 56 55 53 52 53 51 49 49 49 46 45 43 42 42 41 40 38 37 37 37 39 37 37 36 34 34 32 31
56 56 56 56 56 55 54 53 52 50 50 48 45 44 43 42 41 39 38 37 35 36 37 35 35 36 36 36 35 34 33 32
56 56 56 57 56 56 55 55 53 51 49 47 43 41 39 38 37 37 36 38 40 39 35 34 35 35 36 35 36 36 36 34
57 57 56 57 57 56 56 55 54 52 50 47 44 40 39 38 39 40 42 40 36 37 36 36 36 36 34 35 36 36 37 36

GFSFLT2_sfc_dewp_051.txt.gz
Dewpoint
66 66 65 66 66 66 66 66 66 66 66 65 65 64 63 63 63 63 62 62 62 61 60 61 61 58 56 55 55 54 49 51
60 61 61 61 64 66 66 66 66 66 65 64 64 63 63 63 63 63 62 62 61 61 61 59 57 55 52 51 51 52 47 47
59 58 58 60 63 65 66 66 65 64 63 63 60 55 55 55 60 62 62 61 60 59 57 56 55 53 49 47 48 45 46 46
57 58 59 60 62 63 64 64 62 61 61 61 60 59 57 54 59 62 61 60 58 55 52 50 46 38 38 43 37 40 39 41
57 57 56 58 59 63 63 61 60 60 61 60 60 58 59 55 57 55 55 54 46 45 43 40 42 39 39 40 39 37 35 35
57 57 59 61 61 62 60 59 60 60 59 60 59 58 59 55 53 52 51 48 48 45 43 44 42 41 41 40 39 36 35 35
55 55 54 57 61 60 59 61 59 59 59 60 57 56 57 55 54 51 49 48 46 43 42 40 40 39 38 37 37 38 40 39
55 54 55 59 60 60 60 60 60 60 60 61 60 57 57 55 52 51 48 47 45 43 41 39 37 37 38 38 37 37 41 46
54 54 58 61 61 59 59 58 58 59 61 61 61 59 57 55 51 50 48 47 46 43 41 41 37 35 37 37 36 37 37 44
56 57 59 60 60 59 58 60 61 62 62 62 62 61 58 56 51 50 48 47 45 44 41 39 38 37 37 37 36 35 36 38
57 60 61 61 60 60 60 60 61 62 61 61 59 59 57 55 52 49 49 46 45 43 42 42 39 37 35 38 37 34 35 30
59 60 61 60 60 59 59 60 61 61 60 58 56 55 54 53 52 50 48 46 45 44 43 42 40 39 32 36 39 35 34 35
58 60 61 59 58 58 57 59 60 60 58 57 56 52 52 52 51 49 48 46 45 45 43 43 41 41 39 37 37 38 36 34
57 58 60 59 57 58 58 59 59 59 58 55 55 53 51 51 51 48 48 46 45 44 44 41 41 41 39 37 34 33 35 35
56 57 59 59 58 57 56 58 58 57 56 55 54 52 50 50 51 49 47 46 43 44 44 43 40 40 41 37 32 28 32 35
56 58 58 59 59 56 56 56 56 57 56 55 52 52 50 49 48 48 46 45 44 44 43 43 41 37 40 38 40 37 27 25
58 58 58 59 58 57 58 57 58 56 55 54 53 51 50 47 47 46 45 44 45 45 43 42 40 37 36 36 37 36 37 33
59 58 58 59 58 58 57 56 56 55 54 54 52 50 49 48 45 46 46 44 42 41 43 42 39 39 36 36 34 31 29 31
58 57 57 58 58 57 57 57 56 54 54 53 49 49 47 46 45 44 42 40 41 42 41 38 37 37 38 36 37 35 34 33
57 57 57 57 58 57 57 57 57 56 55 53 50 50 47 45 44 41 41 41 43 40 40 38 40 39 40 39 35 34 35 35

GFSFLT2_sfc_dewp_054.txt.gz
Dewpoint
65 65 66 66 66 66 66 66 66 65 65 65 65 65 64 64 63 63 62 63 63 62 61 60 58 55 55 55 56 54 45 46
64 63 65 65 65 66 66 66 66 65 65 64 64 64 64 63 62 63 62 62 61 60 60 59 54 53 53 53 54 53 42 42
59 59 57 60 61 64 65 66 65 64 63 62 59 54 54 55 60 62 62 62 60 58 56 55 54 51 50 50 49 38 38 39
58 56 54 57 61 61 63 62 58 58 57 56 52 55 53 55 60 62 61 60 58 55 53 53 51 40 38 46 35 36 33 34
57 57 59 59 59 59 61 64 60 58 60 56 56 54 55 55 56 53 53 54 45 45 46 43 45 41 40 39 36 33 31 29
57 58 58 58 59 59 59 55 58 57 56 58 57 55 54 55 52 53 52 49 49 48 46 47 44 43 41 40 38 33 32 31
55 56 55 59 59 59 59 59 56 54 56 56 55 54 55 53 54 52 51 50 48 47 46 43 43 42 39 37 37 38 39 35
54 54 55 55 56 55 57 59 57 57 55 56 58 56 57 54 53 52 50 49 48 47 46 44 42 41 39 38 37 35 38 42
49 52 55 57 57 57 57 54 53 53 55 61 59 57 57 56 54 52 50 50 50 48 46 44 41 38 38 37 34 36 37 40
52 51 55 56 58 57 55 53 54 53 58 62 62 60 58 57 53 53 52 51 48 46 45 45 42 40 39 37 36 35 37 38
53 53 54 56 59 59 56 58 55 55 58 60 61 62 61 57 54 54 54 48 47 46 47 46 43 40 36 39 40 36 35 28
52 54 57 59 59 60 56 54 55 57 60 62 61 61 62 59 56 55 50 47 47 47 47 45 43 41 31 36 42 38 35 35
55 56 58 59 58 56 55 53 55 57 59 61 60 59 60 59 56 54 51 48 49 51 47 46 42 43 41 41 41 41 39 34
55 55 57 58 57 56 54 52 54 57 60 60 60 58 57 56 55 53 51 49 49 50 48 44 43 43 42 41 40 38 37 36
56 57 58 59 58 57 54 55 56 57 59 60 59 58 55 54 55 53 53 50 48 49 48 46 42 43 42 41 38 36 34 35
54 54 55 58 59 56 55 51 52 55 58 60 58 57 55 53 53 53 52 50 49 48 46 46 44 41 42 39 39 36 33 32
55 55 55 57 59 59 56 54 52 55 60 59 57 57 56 53 52 52 52 50 49 48 47 47 44 43 39 40 39 37 37 34
58 56 55 57 59 60 60 58 57 57 58 58 57 56 55 53 50 50 51 49 49 48 48 44 44 42 39 37 37 34 30 27
59 58 56 57 59 59 60 60 60 59 58 57 57 55 53 52 51 51 49 49 48 44 43 45 41 40 38 37 34 32 31 30
59 58 58 57 59 60 60 60 60 59 58 58 57 55 53 53 51 50 48 44 42 43 44 40 40 40 40 39 33 33 33 31

GFSFLT2_sfc_dewp_060.txt.gz
Dewpoint
65 65 66 66 66 66 66 66 66 66 66 67 67 67 67 66 65 65 64 63 61 59 58 58 56 56 55 55 56 57 50 51
64 63 64 64 63 62 64 65 66 66 65 65 64 65 65 65 64 64 63 62 60 57 57 57 55 53 52 51 53 55 47 50
63 63 63 62 62 63 63 63 65 64 63 63 61 60 60 59 63 63 62 62 60 57 56 56 52 50 52 50 52 40 44 50
62 62 60 60 57 57 59 62 62 60 58 57 55 58 57 60 62 62 61 61 59 58 56 55 52 42 42 49 39 40 42 52
59 60 59 59 60 60 59 59 60 59 60 58 59 57 58 58 56 56 56 56 48 51 52 49 50 47 46 44 42 38 40 44
58 59 58 59 58 58 59 59 58 58 59 60 60 58 56 55 55 55 53 52 49 51 53 51 48 46 44 42 41 41 41 40
57 57 56 56 56 58 57 58 58 59 59 59 59 59 59 56 56 54 53 54 54 53 52 50 48 45 43 40 40 40 40 44
56 56 55 55 55 56 56 58 55 56 59 59 59 59 61 57 58 56 56 55 54 53 51 50 49 45 42 39 39 40 40 43
55 56 55 55 55 55 55 56 54 56 59 59 59 59 60 58 58 58 56 55 54 53 52 50 48 46 43 41 40 38 39 39
55 56 55 55 55 54 55 53 56 55 58 59 59 60 60 59 57 57 56 56 55 53 51 50 50 47 43 41 39 39 37 37
53 55 54 53 55 54 54 57 56 55 55 58 60 59 60 59 58 57 58 56 54 53 51 52 50 47 43 42 42 41 38 35
54 54 54 54 53 52 55 58 55 56 56 59 61 60 59 59 58 59 58 56 54 52 52 52 51 48 39 39 45 43 42 41
53 54 55 54 53 53 54 54 55 56 56 57 61 61 61 61 59 60 59 56 53 53 52 50 50 47 44 44 46 46 45 42
52 53 54 54 54 54 55 53 54 55 55 57 61 62 61 61 61 60 59 57 54 53 52 50 50 50 45 45 42 45 45 44
52 53 53 54 55 53 53 53 53 52 54 55 60 61 61 60 61 60 59 58 55 54 52 50 48 50 47 45 43 41 41 44
53 53 53 53 53 51 51 50 49 51 54 55 59 61 60 59 59 59 59 58 57 55 52 51 50 47 48 46 43 41 38 38
52 52 52 53 53 55 55 53 52 53 55 56 60 60 59 59 59 58 58 59 57 54 53 52 51 50 47 42 40 42 42 41
54 54 54 54 54 55 57 57 56 53 54 56 59 59 59 59 59 58 58 57 54 54 54 53 52 48 44 42 41 40 40 38
55 55 54 55 56 57 57 58 59 56 56 59 59 59 59 58 58 57 56 55 54 54 52 49 49 47 45 41 41 41 39 39
54 54 54 54 55 57 59 59 59 60 61 59 59 59 59 59 59 56 54 53 51 49 49 49 48 45 40 42 42 41 40 40

GFSFLT2_sfc_dewp_063.txt.gz
Dewpoint
64 63 63 64 66 66 66 67 67 68 68 68 68 67 66 66 65 64 63 62 60 57 57 58 57 56 56 56 57 57 51 51
63 63 62 61 61 63 63 65 65 66 67 67 66 65 65 64 64 63 62 61 58 56 57 56 55 53 52 53 56 57 51 51
62 62 61 60 61 62 62 64 64 64 64 64 63 62 61 61 62 62 62 60 59 58 56 54 52 50 52 55 51 50 52 52
62 61 59 59 59 60 61 62 61 59 59 59 60 59 60 61 62 62 61 60 59 57 55 53 49 42 43 47 39 50 53 54
60 60 59 58 57 57 56 57 60 59 57 58 58 59 59 58 57 57 56 55 51 52 50 46 46 44 41 39 40 44 50 53
59 59 57 55 56 56 58 59 59 59 58 58 57 57 55 54 54 53 50 49 46 49 51 46 44 43 40 39 39 40 43 50
57 58 58 58 57 58 59 59 59 59 59 59 58 56 54 55 54 52 51 51 48 51 48 47 44 43 40 39 38 39 40 46
55 56 56 56 57 57 57 57 57 58 58 58 59 58 55 55 54 52 52 53 52 50 49 47 46 41 38 37 38 39 43 44
55 55 55 55 54 55 55 55 53 55 59 58 59 58 57 55 56 55 54 54 52 50 50 49 45 43 39 39 37 38 39 45
55 56 55 54 54 54 54 51 52 52 58 58 57 58 57 57 56 56 56 55 52 52 49 49 46 44 41 39 39 38 36 36
55 55 54 53 53 53 52 51 54 48 57 57 56 57 59 57 56 56 55 54 53 52 51 50 49 46 41 41 40 39 36 35
54 53 53 52 52 50 51 54 55 55 54 56 58 57 59 57 57 57 56 54 53 51 49 50 51 47 39 40 41 42 38 39
53 53 52 52 51 50 49 52 54 54 55 55 59 59 59 59 58 58 57 54 53 50 50 50 49 48 44 42 44 43 41 40
53 52 52 50 50 49 50 52 54 55 55 55 59 60 61 60 59 59 59 57 52 52 51 49 49 49 43 44 42 44 44 43
52 52 51 50 49 50 52 54 53 54 54 53 59 60 60 60 60 60 59 57 55 53 51 49 48 50 48 45 43 42 41 43
51 52 53 52 52 51 52 52 51 51 53 54 58 60 60 60 59 59 59 58 57 55 53 52 50 50 51 48 43 41 39 38
51 52 51 51 53 54 53 51 51 51 51 53 56 60 59 59 58 57 57 57 55 56 54 54 53 52 50 46 45 46 45 40
50 51 51 51 52 53 52 50 52 52 51 53 56 59 60 59 58 58 57 58 57 54 54 53 52 49 48 47 45 44 43 39
50 51 51 51 52 52 52 54 53 53 52 54 58 58 58 58 58 57 56 55 53 53 54 52 50 48 46 45 45 43 43 43
51 50 50 50 52 52 53 55 58 56 56 57 57 58 58 58 58 57 56 53 52 52 50 50 48 47 44 44 43 44 44 43

GFSFLT2_sfc_dewp_066.txt.gz
Dewpoint
63 62 62 62 62 67 67 67 68 68 67 67 67 66 65 65 64 63 62 61 59 58 58 58 58 58 60 59 58 57 52 52
63 62 61 61 61 62 62 64 67 67 66 66 65 65 65 64 63 62 62 60 58 58 57 57 56 58 59 59 58 56 51 52
62 61 60 60 61 60 60 61 65 66 65 65 63 63 61 60 61 61 61 60 58 57 57 56 53 56 59 58 56 52 52 53
60 60 60 60 61 60 59 63 62 63 62 62 62 60 59 59 61 61 60 59 57 56 55 54 49 41 45 52 51 52 53 53
60 59 59 59 58 58 60 61 61 60 60 60 60 60 59 58 57 56 55 54 49 48 48 46 43 40 40 44 50 53 54 54
59 58 58 58 58 58 58 59 58 58 58 59 58 57 56 55 53 51 49 48 48 48 48 45 42 40 39 41 44 49 52 54
57 57 57 57 56 55 58 59 59 58 58 57 56 54 53 53 51 49 48 47 49 49 47 44 43 40 39 39 40 45 50 53
58 57 57 58 57 57 58 59 58 58 57 56 55 54 53 51 50 50 49 49 51 49 47 45 42 38 37 38 39 39 44 49
56 57 57 57 57 57 57 57 56 56 58 57 56 54 54 53 51 51 51 52 51 49 48 48 44 41 38 37 39 41 43 44
56 57 56 56 55 55 55 52 54 56 58 58 57 56 55 54 54 54 54 53 52 51 50 48 45 43 40 39 37 38 41 43
55 54 53 53 53 53 53 52 51 51 58 57 56 57 57 56 56 56 55 54 52 51 49 49 47 45 41 39 39 37 36 38
55 54 53 53 53 52 51 54 54 54 54 56 56 56 58 57 56 56 54 54 52 51 49 50 50 48 42 40 40 39 37 38
53 53 52 51 50 50 49 47 51 53 53 54 57 57 59 57 56 57 55 53 52 51 50 49 49 49 44 42 42 42 39 39
53 52 52 51 50 49 48 47 51 53 53 54 56 58 58 58 58 57 56 55 53 51 50 49 49 49 45 44 40 43 45 42
52 52 52 51 51 49 50 51 53 53 53 53 55 58 58 57 57 58 58 57 54 53 52 49 48 50 46 45 44 43 43 44
52 52 51 51 51 49 48 48 48 49 49 51 54 58 58 59 59 58 58 58 56 54 53 51 50 49 51 49 46 44 42 42
52 51 51 50 49 49 48 49 50 52 53 53 53 57 58 59 59 59 59 58 57 56 53 52 52 51 51 48 46 47 46 44
51 51 50 50 49 49 49 50 52 53 52 52 53 56 58 59 59 58 57 57 55 55 54 53 51 52 51 48 47 46 45 44
49 50 50 50 50 50 51 52 52 52 51 52 52 54 57 58 57 57 57 57 56 53 52 52 51 51 49 47 47 46 45 44
49 49 49 50 50 50 52 53 54 53 53 54 54 55 56 59 58 57 57 55 54 52 52 52 50 49 48 47 45 45 45 44

GFSFLT2_sfc_dewp_072.txt.gz
Dewpoint
60 62 62 62 61 61 64 66 66 67 66 67 66 65 65 64 64 63 62 65 65 64 63 62 62 61 60 60 59 57 53 53
61 62 60 60 61 61 63 65 66 66 66 66 65 65 64 63 62 61 61 63 64 63 62 62 61 60 60 59 59 56 52 53
61 60 60 59 60 60 62 65 66 65 65 65 63 62 60 58 58 59 59 61 62 63 62 61 60 60 59 59 55 52 53 54
61 60 60 59 60 58 62 64 63 63 63 62 61 59 57 58 58 59 59 59 61 62 62 60 58 56 56 55 52 53 53 54
60 59 59 59 58 58 60 62 63 63 61 61 58 58 58 56 53 53 53 53 51 56 54 51 53 53 52 52 52 53 53 55
59 59 59 59 58 57 59 61 62 61 61 58 57 56 54 52 49 48 48 47 44 45 47 46 48 50 51 52 52 53 53 55
59 59 59 58 57 57 59 61 61 61 60 57 55 53 52 50 48 48 48 48 44 42 43 45 47 48 50 51 52 52 53 54
59 59 59 58 56 57 59 60 61 61 59 56 53 52 51 48 48 48 49 47 46 42 40 42 42 44 47 50 51 52 53 54
58 58 58 58 56 58 58 59 60 60 58 55 54 51 50 48 48 48 49 49 47 44 43 40 39 39 41 45 48 51 52 53
57 58 58 57 57 58 59 59 59 59 57 55 54 52 50 49 48 49 50 51 48 46 44 42 40 39 39 41 43 46 49 51
57 58 57 57 57 57 57 58 58 59 57 54 53 52 51 49 49 51 52 52 50 48 48 46 43 41 39 39 41 41 43 42
57 57 57 57 56 55 56 57 58 58 57 53 52 52 52 52 51 52 53 52 51 50 48 49 46 44 40 39 40 40 41 43
56 56 56 56 55 52 54 55 56 57 56 54 53 53 53 54 53 55 54 52 51 50 50 49 49 47 44 43 42 41 40 39
54 54 54 55 55 54 55 53 53 54 55 56 56 55 55 55 55 56 55 54 52 51 50 49 49 48 45 43 41 41 43 41
53 53 53 53 54 53 52 52 53 52 53 53 55 56 57 57 56 56 55 54 53 52 50 50 49 50 48 46 43 41 43 45
53 52 52 51 50 50 49 49 49 49 50 51 52 55 56 56 56 56 56 55 53 53 52 52 52 49 50 50 49 47 45 44
52 52 51 50 50 50 49 48 48 46 48 48 49 52 54 55 56 56 57 56 55 55 53 52 52 51 51 48 48 48 47 47
52 51 51 51 50 49 49 48 48 47 47 48 50 51 52 54 55 56 56 56 56 56 56 54 53 52 51 48 48 48 46 46
51 52 51 51 51 50 49 48 48 48 47 48 48 50 51 52 54 55 56 56 56 56 55 54 52 51 51 50 49 50 49 49
51 51 51 51 51 50 50 49 49 49 49 50 51 50 50 52 54 55 55 55 54 54 53 54 54 53 52 51 51 50 49 48

GFSFLT2_sfc_dewp_075.txt.gz
Dewpoint
64 65 65 64 64 64 64 66 66 67 67 66 66 66 66 66 65 64 65 66 66 65 64 62 62 61 61 60 59 59 54 54
63 63 63 62 63 62 63 65 66 66 66 66 65 65 66 64 63 65 66 66 65 64 62 62 62 61 60 59 59 58 54 53
62 62 61 62 62 62 63 66 65 66 66 65 63 63 62 60 61 64 65 64 63 62 62 61 61 60 60 59 57 53 53 53
61 62 61 61 60 62 63 63 65 65 64 63 61 61 59 57 60 62 64 63 62 62 62 61 57 54 55 56 53 54 53 53
61 60 60 60 59 60 63 64 63 64 63 62 59 58 58 57 57 58 61 62 58 58 57 53 55 53 52 53 54 54 53 53
61 60 60 60 58 59 62 61 62 62 61 59 58 56 55 54 53 54 56 59 59 57 55 55 55 53 53 54 54 53 53 52
60 60 59 59 58 59 61 61 60 60 60 57 55 53 52 51 51 50 49 53 55 53 53 52 52 52 53 53 53 53 54 53
60 59 59 58 57 59 61 61 60 60 59 56 55 51 50 49 50 49 48 49 50 52 52 52 51 51 52 52 53 53 53 54
59 60 59 58 58 59 60 61 60 59 58 57 54 51 50 51 51 50 49 47 48 48 51 51 50 49 50 52 52 53 53 54
59 59 59 58 58 59 60 61 61 59 56 55 54 51 51 52 51 51 51 50 48 46 47 46 46 47 48 49 50 52 53 54
58 59 58 57 58 60 59 59 59 58 57 53 53 52 52 52 52 53 54 53 51 46 45 44 43 42 42 44 46 49 51 51
57 58 57 58 58 58 58 59 59 58 56 53 52 51 52 52 52 53 54 52 50 49 48 48 44 43 35 40 43 44 45 46
57 57 57 57 57 57 57 57 58 58 57 54 53 51 53 52 52 54 55 53 52 53 52 51 49 48 44 44 43 44 44 43
56 56 56 56 56 56 57 57 58 58 57 55 54 53 53 53 54 56 55 56 54 54 53 53 53 50 47 47 46 46 44 43
53 55 56 55 55 55 55 55 56 56 56 56 54 54 53 54 55 57 57 57 56 55 54 53 51 51 51 50 46 45 46 47
55 55 55 55 55 54 54 53 53 55 55 55 55 54 55 54 57 57 58 58 57 57 54 54 54 52 53 52 52 50 49 48
53 54 54 54 55 54 53 54 54 56 55 55 55 55 54 56 57 58 58 58 59 58 56 56 56 55 53 51 50 50 50 50
53 53 53 53 54 54 53 53 53 51 52 52 52 54 55 56 56 58 58 59 59 59 58 57 57 54 56 54 53 52 51 50
51 52 52 53 52 53 53 53 52 51 51 52 51 52 53 54 56 57 58 58 59 59 59 58 57 57 57 56 54 54 53 51
51 51 52 52 52 52 53 52 51 51 51 50 52 52 53 54 56 56 56 57 58 59 59 59 59 58 57 56 55 53 53 51

GFSFLT2_sfc_dewp_078.txt.gz
Dewpoint
68 68 66 65 64 65 66 66 67 67 67 66 67 67 67 67 66 67 67 67 65 64 64 63 62 62 61 60 60 61 52 52
65 67 66 65 65 62 64 66 65 66 66 66 66 66 66 65 65 66 67 66 65 63 63 62 62 61 60 60 59 60 51 51
63 63 65 65 64 63 63 64 65 65 66 66 65 65 63 62 63 66 66 65 64 63 63 62 61 60 60 59 59 50 50 49
61 62 62 63 62 63 64 64 64 65 65 65 64 63 62 61 65 65 65 63 63 63 62 61 57 52 54 57 49 51 50 50
62 62 62 62 62 62 64 65 65 65 64 63 63 63 62 63 64 62 61 60 54 56 56 51 51 50 50 50 52 52 51 51
62 61 61 61 60 61 63 64 64 65 63 62 61 61 60 61 61 59 58 55 55 54 51 53 52 51 51 52 52 50 50 51
62 62 61 61 61 61 62 62 63 61 61 60 59 57 56 57 60 59 58 56 55 54 53 52 52 51 51 51 51 51 52 50
61 61 61 60 59 61 62 61 60 60 59 58 57 55 55 54 54 55 58 58 55 54 53 49 47 48 50 51 51 52 52 52
60 61 60 59 59 61 61 61 60 58 57 56 55 55 55 53 51 52 54 55 55 54 52 49 47 46 48 50 50 51 51 53
59 60 60 59 59 61 61 60 60 58 56 53 54 53 53 52 50 51 52 53 53 52 51 49 48 46 47 47 48 50 52 52
58 59 59 58 59 60 60 59 58 58 56 52 52 52 53 51 50 51 51 49 50 50 49 48 46 45 45 46 47 48 51 49
58 59 58 58 59 60 60 58 58 58 55 51 49 48 53 51 48 51 49 47 47 45 47 45 44 43 37 42 45 46 47 49
57 58 58 58 58 58 58 57 57 56 55 52 51 49 51 54 54 53 51 50 51 51 48 49 46 46 42 43 44 46 47 45
57 57 57 57 57 56 58 58 58 56 55 52 52 52 53 55 54 54 54 55 54 54 52 51 52 49 47 48 46 46 44 44
55 57 57 57 57 56 58 58 58 56 56 54 53 53 53 54 55 55 56 55 54 55 54 53 51 54 53 50 49 48 50 49
55 56 56 56 57 56 57 56 55 56 54 54 54 53 53 53 55 56 57 56 55 56 54 55 54 52 52 51 55 53 51 51
55 56 56 56 56 56 55 55 56 57 56 55 54 54 54 54 55 55 55 56 56 57 57 57 55 54 54 54 54 52 51 49
54 54 55 56 56 55 56 55 55 56 55 54 54 53 53 54 53 57 56 58 57 58 60 59 58 57 58 56 53 52 52 52
53 54 54 55 56 55 56 56 55 55 55 54 53 53 52 53 54 55 57 58 58 58 59 60 59 58 58 56 56 56 55 56
53 53 53 54 54 56 56 56 55 56 57 55 54 53 53 54 55 55 56 56 56 57 59 58 58 59 58 58 57 57 56 56

GFSFLT2_sfc_dewp_081.txt.gz
Dewpoint
69 68 66 66 64 64 66 65 63 67 66 67 67 67 67 67 66 66 66 66 65 65 64 64 63 62 61 60 59 61 51 51
68 67 67 66 66 65 65 66 66 65 66 67 67 66 66 66 65 66 66 65 65 64 64 63 62 61 60 59 59 58 50 50
65 66 66 66 66 63 63 63 66 66 66 66 65 66 64 64 63 65 65 65 64 64 63 62 61 60 60 59 60 48 49 49
63 64 64 64 64 63 63 63 64 65 66 66 65 65 64 63 65 65 65 64 63 63 62 61 57 52 53 57 51 50 48 50
63 62 63 64 63 63 63 66 67 68 66 66 64 65 65 62 66 65 63 61 56 57 57 50 50 48 51 52 51 51 49 51
61 62 62 63 63 62 62 63 65 65 66 64 64 63 63 63 63 62 60 54 54 53 51 54 52 49 51 52 52 50 49 52
62 62 61 61 62 61 61 63 63 65 65 64 63 62 62 61 61 61 56 54 54 52 51 50 51 50 50 51 50 51 51 51
62 62 62 60 61 62 63 63 64 65 63 63 62 61 61 60 61 59 56 55 54 52 52 50 50 50 51 51 50 51 51 53
59 61 61 60 59 61 61 61 60 59 59 60 59 59 60 60 60 59 60 57 57 57 54 50 48 48 50 50 50 52 51 52
58 60 60 60 59 61 60 59 58 58 58 57 57 56 56 56 58 59 60 58 56 55 53 50 47 47 48 49 50 51 52 52
57 60 60 60 60 61 60 58 57 57 57 56 56 56 56 55 55 56 58 55 57 56 55 54 48 47 46 47 49 49 51 50
56 59 59 60 60 60 59 58 57 57 55 54 55 55 55 53 52 54 53 52 53 53 54 53 51 47 41 45 48 48 49 50
56 58 59 59 58 58 57 56 56 55 52 52 53 52 52 51 51 52 51 50 51 54 52 52 48 48 42 44 46 48 49 48
55 57 58 58 58 58 57 56 56 55 52 49 50 51 49 50 53 54 51 50 53 53 52 51 49 50 45 45 45 45 46 47
54 57 57 57 57 58 57 56 56 54 54 48 49 53 53 54 56 55 54 55 54 56 56 54 51 51 53 53 52 51 50 49
55 56 57 57 58 58 56 54 52 53 52 52 50 53 55 55 56 56 57 57 57 57 55 56 55 53 52 52 54 54 52 51
55 56 56 56 57 57 57 55 54 54 54 51 50 52 52 53 55 57 56 56 58 58 56 56 56 57 55 54 54 54 55 51
55 56 56 56 57 57 57 56 56 55 53 52 52 51 53 55 54 56 56 56 58 58 59 58 58 58 58 58 55 52 52 51
54 55 54 56 56 56 57 57 56 55 54 52 52 52 52 54 54 56 56 56 57 59 59 59 59 59 58 57 56 55 53 55
53 54 54 55 56 56 56 57 57 56 55 53 53 52 51 52 53 52 54 55 55 58 59 58 61 60 60 58 56 56 56 55

GFSFLT2_sfc_dewp_084.txt.gz
Dewpoint
68 69 67 65 65 65 65 65 63 63 62 62 68 68 68 67 67 67 67 67 66 65 64 64 63 62 60 59 59 62 52 53
68 68 68 66 65 64 66 65 64 64 64 66 66 66 66 66 66 66 66 66 65 64 64 63 62 61 59 58 58 60 50 52
66 66 66 66 66 64 64 66 66 65 64 65 65 65 66 64 65 65 65 65 65 64 63 62 61 60 59 59 61 52 51 53
64 66 65 66 66 64 64 64 66 65 63 65 65 65 64 63 65 65 65 64 64 63 62 61 58 54 55 58 54 52 52 53
62 63 65 64 63 65 66 65 66 66 65 65 64 65 65 64 64 64 63 63 61 60 59 53 51 51 53 53 54 52 52 53
62 62 63 65 65 63 65 65 65 65 65 64 64 64 63 63 63 63 60 58 57 56 54 53 52 51 53 55 52 52 53 55
61 62 62 62 63 64 63 64 65 64 65 64 64 63 62 63 63 62 58 54 54 52 52 50 51 50 53 52 53 52 53 54
62 62 62 62 62 62 63 63 64 64 64 64 64 63 61 62 62 61 54 53 51 51 53 52 51 51 53 53 52 52 52 54
62 63 62 61 62 62 62 62 63 64 64 64 63 62 61 61 61 60 55 54 52 55 54 53 52 51 52 52 53 53 52 53
61 61 60 61 61 61 60 59 59 59 60 63 61 61 60 59 59 59 60 59 56 54 52 52 52 52 51 51 52 53 53 52
59 61 60 60 61 60 58 58 58 58 58 58 59 59 58 58 59 59 60 59 57 54 54 52 50 51 50 52 52 53 53 52
60 60 60 61 61 59 58 57 57 57 56 56 56 57 58 57 57 58 57 57 55 54 52 52 50 50 45 48 52 53 52 53
58 59 59 59 59 57 56 55 56 55 55 55 55 55 55 56 57 57 56 54 54 53 52 50 48 49 50 50 50 51 52 52
58 57 58 58 58 58 57 55 55 54 54 53 54 53 54 54 54 53 53 52 53 53 51 51 50 52 48 47 45 47 48 50
57 57 58 58 58 57 56 55 54 53 52 52 53 53 52 51 52 50 51 51 51 52 52 51 50 51 51 51 49 48 47 49
55 56 57 57 58 56 55 53 51 50 49 50 51 52 52 49 50 51 53 52 53 52 54 52 54 50 52 53 54 54 51 49
55 55 57 57 58 56 55 53 50 51 49 48 49 52 53 54 53 54 53 57 56 55 55 55 57 56 51 53 52 55 55 52
55 55 56 57 58 56 55 53 51 52 49 47 48 51 53 53 55 56 56 57 56 57 56 56 56 56 57 56 53 52 53 52
55 55 55 56 57 56 55 53 52 52 50 49 48 50 51 52 54 56 55 55 57 57 57 57 57 56 55 55 57 55 55 54
54 54 54 56 56 57 57 55 53 52 52 51 49 49 49 52 53 54 54 55 56 57 56 55 57 57 56 56 55 55 55 53

GFSFLT2_sfc_dewp_087.txt.gz
Dewpoint
68 68 67 67 66 66 65 65 65 64 63 62 62 64 67 68 68 68 68 67 66 66 65 65 63 62 61 59 60 59 54 55
67 67 64 62 63 65 65 65 64 64 64 63 63 63 66 66 66 67 67 66 66 65 64 64 62 61 59 60 59 58 54 54
65 66 65 63 63 64 66 65 64 64 64 64 63 66 66 65 66 66 66 65 65 64 64 62 61 60 59 60 58 53 55 55
64 65 64 64 65 63 63 64 65 64 62 64 63 65 65 66 65 65 65 65 64 63 62 61 57 53 54 56 53 53 54 55
63 64 64 64 64 62 63 63 64 64 62 64 65 65 64 64 64 64 63 63 61 60 59 55 52 53 53 52 53 53 54 55
61 62 62 63 63 63 63 63 64 65 62 64 64 64 63 64 63 62 61 60 59 57 54 52 51 52 52 53 53 53 54 55
61 61 61 63 62 61 62 62 63 64 64 64 64 63 62 62 63 62 60 58 57 54 53 50 50 51 52 53 53 54 54 55
60 61 61 60 60 60 61 62 62 63 64 63 63 62 62 61 62 61 58 55 54 52 52 49 50 49 51 52 53 53 54 55
61 61 61 60 61 61 61 60 61 62 63 63 63 62 62 61 62 60 55 53 51 51 52 52 50 51 51 52 53 53 54 54
61 62 60 61 60 59 58 58 58 61 62 64 63 62 61 62 61 59 55 53 49 52 52 51 51 51 51 52 52 53 53 53
60 59 59 59 60 59 58 58 58 59 59 63 62 62 61 61 61 59 57 55 53 53 52 51 50 51 50 51 52 53 53 52
60 59 59 60 59 58 58 57 57 57 57 60 61 61 61 61 59 59 59 57 54 52 51 51 51 50 48 51 51 53 53 53
59 58 58 59 58 56 56 55 55 55 56 57 59 59 59 58 58 57 57 55 53 51 50 49 49 49 49 49 50 52 51 52
58 58 58 58 57 56 56 55 55 55 55 56 57 58 58 58 57 57 56 54 52 50 49 50 48 50 48 47 45 46 49 51
57 57 57 57 58 56 56 55 54 53 53 53 55 57 58 57 57 57 55 54 52 50 49 48 46 50 49 48 46 45 46 48
57 57 57 57 58 56 54 52 52 52 52 52 52 54 55 55 54 54 53 53 51 51 51 50 51 47 52 54 53 52 47 46
56 57 57 57 57 56 54 52 52 51 51 51 52 52 51 51 52 51 51 52 53 51 53 53 53 52 50 51 51 54 53 50
55 56 56 57 57 55 54 52 51 50 49 50 50 51 52 51 50 49 53 53 54 53 53 53 55 55 54 53 51 51 52 53
54 55 56 57 57 55 54 52 50 50 47 48 49 50 50 51 52 50 53 54 56 55 55 55 55 56 55 54 55 54 55 53
54 54 54 56 57 55 55 53 51 50 48 47 48 50 49 52 54 55 54 55 56 56 56 56 56 56 55 55 55 55 56 55

GFSFLT2_sfc_dewp_093.txt.gz
Dewpoint
66 67 68 69 69 69 69 68 67 66 66 66 67 66 66 66 66 67 67 67 67 67 66 66 65 64 64 62 62 62 59 59
65 66 66 66 66 68 67 66 65 65 65 65 66 66 66 67 66 66 66 66 67 66 66 64 63 64 62 61 61 60 58 58
63 63 63 63 65 67 66 66 66 66 66 65 64 63 62 64 65 66 66 66 66 66 65 62 62 62 61 61 59 56 56 56
64 62 61 62 64 64 63 64 64 63 63 63 62 62 62 62 63 64 66 66 65 64 63 62 61 59 59 58 55 55 55 56
62 62 61 61 61 62 63 62 61 61 62 62 62 62 62 62 63 64 65 65 63 62 58 57 57 57 55 54 54 54 55 55
60 62 62 62 63 60 60 61 62 61 62 62 63 61 62 63 63 64 63 62 61 59 55 54 53 54 54 54 54 53 54 55
60 61 61 62 63 61 60 60 62 62 62 62 64 63 61 63 63 63 62 60 58 57 53 52 53 53 54 54 54 54 54 55
59 60 60 60 60 62 62 62 63 62 62 63 63 63 62 62 63 62 61 59 57 55 52 51 52 53 53 53 54 54 55 55
59 60 60 60 59 59 61 61 63 62 61 62 63 63 62 62 62 62 60 58 56 54 51 50 52 53 53 53 54 55 55 55
59 61 59 59 59 58 59 60 62 63 62 63 63 63 62 62 61 60 58 57 55 53 51 49 51 53 53 53 54 55 55 55
59 59 59 58 58 58 58 59 60 61 63 63 63 62 62 62 61 59 57 56 54 52 50 49 51 52 53 53 53 54 54 54
59 59 58 58 58 57 56 56 58 58 59 62 62 62 62 62 61 58 56 54 51 51 49 50 51 52 52 52 53 53 54 54
59 58 59 59 57 56 56 56 56 56 55 56 60 62 61 62 60 58 56 51 51 52 49 50 51 52 52 52 53 52 53 53
59 58 58 57 57 55 55 55 55 55 56 56 57 61 62 61 61 58 56 50 51 52 49 50 50 53 51 51 50 50 52 52
58 58 57 57 56 55 54 54 54 54 54 56 57 60 61 61 60 58 57 52 53 52 49 48 49 49 52 51 48 48 49 50
58 58 57 56 55 54 54 53 51 53 53 54 57 59 60 60 60 58 57 53 53 53 51 49 51 49 50 51 51 50 48 45
57 57 56 55 55 54 53 53 52 53 53 54 56 57 58 59 59 58 57 53 55 54 52 52 52 51 50 51 51 51 49 47
57 55 55 55 55 54 53 53 52 52 52 53 53 55 56 57 58 57 56 54 55 54 52 53 53 52 52 52 51 50 50 49
56 55 55 55 55 54 53 53 52 51 52 53 52 53 54 55 57 55 55 53 55 55 54 53 52 52 51 51 53 52 53 51
55 55 54 55 55 54 54 53 52 52 52 53 53 53 53 54 54 55 55 55 55 54 54 53 54 53 51 52 52 53 54 53

GFSFLT2_sfc_dewp_096.txt.gz
Dewpoint
66 67 69 70 69 69 69 69 69 69 68 68 68 67 66 66 66 66 66 67 67 68 67 67 66 65 64 63 63 62 60 60
65 65 66 67 67 68 68 68 67 67 67 67 65 64 65 64 64 65 66 67 67 67 67 66 65 64 63 62 62 62 60 60
63 64 64 64 65 67 67 67 66 66 66 66 64 64 64 64 64 64 66 65 65 67 66 64 64 63 62 62 60 58 58 59
64 62 62 62 64 66 66 65 65 65 64 64 64 63 62 64 64 65 64 65 65 65 64 63 62 60 60 59 56 56 57 58
64 62 61 61 62 64 64 65 64 64 63 63 63 62 62 62 62 64 64 64 64 64 61 60 59 58 56 55 55 56 56 57
62 62 60 60 60 61 63 63 62 62 61 62 62 62 62 61 62 62 63 64 64 60 59 58 57 56 55 55 55 55 55 56
60 62 62 61 60 60 61 62 62 61 61 61 62 61 61 61 62 63 62 64 63 58 56 56 55 54 55 54 54 54 55 56
59 62 62 62 61 60 60 60 62 62 62 62 62 62 62 62 62 62 61 62 61 57 55 54 54 54 54 54 54 54 55 56
58 60 60 61 59 60 61 61 62 62 62 62 63 63 62 62 61 61 61 61 60 56 54 53 53 53 53 54 54 55 55 55
59 61 60 59 59 58 59 62 63 62 62 62 63 62 62 62 62 61 61 59 57 54 52 53 53 53 53 54 54 55 55 55
58 60 60 59 58 57 57 58 62 63 62 62 62 63 61 61 62 61 59 58 56 54 51 52 53 53 53 53 54 55 55 55
58 60 59 57 58 57 57 57 57 59 62 62 62 63 62 62 61 59 59 56 54 53 50 52 53 53 52 53 53 54 54 54
58 59 59 59 58 57 57 57 57 55 56 59 62 62 62 62 61 58 58 56 54 52 50 51 53 53 52 52 52 53 53 54
58 58 59 59 59 57 56 56 56 54 54 56 57 60 62 62 60 58 57 55 54 51 50 51 52 53 51 51 50 51 52 53
58 58 58 58 57 56 55 55 54 53 54 53 54 57 60 62 60 58 57 55 54 52 50 50 51 53 53 51 49 48 50 52
58 58 58 57 56 55 53 53 52 52 52 53 56 56 59 60 60 58 57 56 55 53 50 50 51 51 52 51 52 51 49 47
58 57 57 57 55 55 53 51 53 53 52 54 56 57 58 61 60 58 57 54 55 54 51 50 52 52 52 51 51 51 50 48
57 57 57 56 55 53 52 51 52 52 53 53 55 57 58 59 59 59 57 55 54 54 53 51 53 52 53 52 51 50 50 48
56 56 56 56 55 53 52 52 52 52 52 53 53 54 55 57 58 58 57 55 55 54 54 54 54 53 53 52 53 52 52 50
56 55 55 55 55 53 53 52 52 52 52 53 54 54 55 57 57 56 55 55 55 55 53 54 54 54 53 51 52 52 53 52

GFSFLT2_sfc_dewp_102.txt.gz
Dewpoint
71 71 70 69 69 69 69 70 70 70 70 69 68 68 68 68 68 68 66 67 67 69 68 68 67 66 65 64 64 64 59 57
70 70 70 71 71 68 68 69 69 69 69 68 67 67 68 68 67 67 68 67 66 67 67 67 67 65 64 64 63 63 59 58
70 69 69 69 69 69 69 69 68 68 68 67 66 67 67 66 65 67 67 67 67 67 67 65 65 64 64 63 63 59 58 57
67 68 68 69 67 70 70 70 70 69 68 68 66 66 65 62 64 66 66 66 66 64 64 65 65 64 62 62 59 60 58 57
66 68 68 68 66 68 69 70 70 70 68 69 69 68 66 64 64 63 64 65 66 64 64 65 64 66 63 63 61 60 56 57
66 67 68 68 65 67 67 68 68 68 68 68 68 67 66 66 65 63 65 64 65 64 64 64 64 64 62 62 60 57 55 57
66 67 67 66 66 65 66 66 67 66 67 66 67 65 65 64 64 65 64 67 65 64 64 63 64 63 61 60 58 57 56 55
65 66 67 66 65 65 64 65 66 66 66 66 66 65 65 65 65 64 66 66 66 64 63 63 64 63 60 59 58 57 57 56
64 66 66 66 65 65 63 61 65 65 65 65 65 65 65 64 64 64 65 66 62 62 62 62 62 61 59 58 57 57 55 54
62 64 65 65 65 64 62 61 63 64 64 64 65 65 64 64 64 64 64 64 62 61 60 60 61 61 58 57 56 55 55 54
60 64 64 64 64 64 63 64 63 64 63 64 64 64 63 63 63 63 63 60 61 60 59 59 60 60 57 56 55 54 55 53
59 61 64 64 64 64 62 63 63 63 63 63 64 63 63 63 63 61 60 58 58 59 58 59 59 58 55 55 55 54 54 54
58 61 63 62 63 62 62 62 62 63 63 63 63 64 63 63 62 61 59 58 57 57 57 57 58 59 55 55 56 55 55 55
57 58 61 62 62 61 61 61 61 61 62 63 63 64 64 63 62 61 60 58 57 57 57 56 57 58 55 53 52 54 55 55
55 57 60 61 61 60 60 61 61 61 61 61 62 63 63 62 62 61 59 59 57 58 58 58 56 57 58 53 51 50 52 54
53 56 59 61 61 60 60 57 57 58 59 59 60 62 62 62 62 61 60 59 57 58 58 57 56 54 56 54 54 52 50 51
54 56 57 60 61 60 59 58 57 57 58 58 59 59 61 61 61 61 61 59 58 57 58 58 57 55 55 55 55 54 53 49
56 56 57 59 60 60 60 59 58 56 57 57 57 57 57 58 60 61 60 60 59 57 56 57 57 57 57 57 54 53 53 51
56 56 57 59 59 59 60 59 59 57 56 55 55 55 56 57 59 61 59 59 59 57 56 56 57 56 57 56 55 54 53 54
56 56 56 58 58 59 59 59 58 57 56 54 55 55 56 57 59 60 60 59 58 57 56 56 56 56 57 55 54 55 54 53

GFSFLT2_sfc_dewp_108.txt.gz
Dewpoint
71 70 70 70 69 70 70 70 70 69 70 71 71 70 70 70 69 69 69 69 69 69 69 68 68 67 67 66 65 65 64 65
71 70 70 70 70 69 69 69 69 69 70 70 68 68 68 68 68 68 68 68 68 68 68 67 67 66 65 64 64 64 62 64
71 70 69 70 69 69 69 69 69 69 69 68 67 69 68 67 66 67 67 66 67 68 67 66 65 65 65 64 64 62 62 60
69 69 69 69 66 69 69 69 69 69 69 69 69 69 68 66 65 67 66 66 67 67 66 65 64 65 65 64 63 62 62 60
66 69 69 69 67 69 68 68 68 68 68 69 69 68 68 67 68 65 66 66 66 65 64 63 63 64 64 64 63 63 63 60
64 67 69 69 67 68 68 67 69 69 69 69 68 68 67 67 67 66 65 65 65 63 63 64 62 62 62 62 63 63 61 59
63 66 68 68 69 67 68 68 68 68 68 68 68 68 67 67 66 66 65 66 65 64 63 63 62 62 62 62 62 62 61 60
63 64 68 68 67 68 67 67 68 68 67 67 68 68 67 66 66 65 65 66 65 65 64 63 62 62 61 62 62 62 59 60
64 65 68 67 67 68 66 66 66 66 66 66 67 67 66 65 65 65 65 66 65 64 64 63 62 62 61 62 62 61 60 59
64 64 66 68 67 66 65 66 65 65 66 67 65 66 66 66 65 64 64 65 64 64 63 63 62 61 60 61 62 60 59 58
63 66 66 67 67 66 66 66 65 65 65 65 65 65 66 65 64 64 64 64 64 63 63 62 61 61 62 61 62 58 58 57
62 65 66 67 66 66 65 65 64 64 63 64 65 64 65 65 64 64 64 64 63 62 61 62 61 61 62 62 61 56 54 56
57 64 66 66 65 64 63 63 64 64 63 63 63 63 64 65 64 63 63 62 62 61 61 61 60 61 60 59 58 58 55 56
54 62 66 65 64 64 63 63 64 63 63 63 63 64 64 64 63 62 61 60 60 60 60 59 59 61 58 56 53 54 56 54
49 55 64 64 64 63 62 63 63 62 62 62 62 63 63 63 63 61 60 59 58 59 59 58 57 59 59 55 52 51 53 56
48 51 59 63 64 62 61 61 60 60 61 60 61 62 62 63 63 61 59 59 58 58 58 58 58 57 58 59 56 54 52 51
53 49 53 60 63 61 61 61 61 60 61 60 60 62 62 63 62 61 59 58 58 58 58 58 59 57 56 56 56 56 54 52
50 52 51 56 63 62 61 61 60 60 60 60 60 60 61 62 62 61 59 58 58 58 58 58 58 58 57 57 55 53 52 51
49 46 47 53 61 62 62 62 61 60 59 59 59 59 59 61 61 61 61 59 59 59 59 59 58 58 57 57 57 55 55 53
54 44 45 51 59 61 61 62 61 60 60 59 58 58 59 60 61 61 61 60 59 59 59 58 58 58 57 56 56 55 56 55

GFSFLT2_sfc_dewp_111.txt.gz
Dewpoint
68 69 69 69 70 70 70 70 70 69 69 71 71 70 70 70 70 70 70 69 69 70 69 68 68 68 67 66 65 65 64 65
68 68 68 68 68 69 69 69 69 68 68 69 69 69 69 69 69 69 69 69 69 69 68 68 67 67 66 65 64 64 63 64
68 68 68 68 67 68 69 69 69 68 69 68 67 68 68 68 67 67 68 68 68 68 68 66 66 65 65 64 64 64 63 65
68 68 68 68 68 67 67 68 68 67 68 67 68 67 67 67 66 66 66 66 67 67 66 65 64 63 64 64 63 63 63 64
68 68 68 68 67 67 68 67 67 67 67 67 67 67 67 66 65 66 65 65 66 66 65 63 62 63 63 64 63 64 63 64
68 68 68 68 67 67 67 67 67 67 67 67 67 66 65 66 65 64 64 65 64 63 63 62 61 62 63 63 62 64 63 63
66 67 67 66 66 68 67 67 67 67 67 67 66 65 64 65 65 64 64 64 64 63 62 62 60 61 61 61 62 62 63 63
64 65 67 66 66 67 66 66 67 67 67 67 66 65 64 64 64 64 63 64 63 63 62 61 60 61 61 62 62 63 62 62
62 65 67 66 66 67 66 66 66 65 65 66 67 66 65 64 63 63 63 64 63 63 61 61 60 61 61 62 62 62 62 61
62 64 66 66 65 66 65 65 64 64 64 64 66 66 65 64 63 63 63 63 63 62 62 61 61 61 61 61 61 63 63 61
61 64 65 66 65 65 64 65 64 64 64 64 64 66 65 64 64 63 64 63 62 62 61 62 60 61 61 60 61 62 62 60
61 63 65 65 65 65 64 64 64 64 64 64 64 64 64 64 63 62 63 62 63 62 61 61 61 61 61 60 60 62 62 59
62 63 65 65 65 64 63 63 64 64 64 63 63 63 64 63 63 62 62 62 62 62 61 61 60 60 60 60 60 60 60 59
63 63 65 64 64 63 63 62 62 62 62 63 63 63 63 63 62 61 62 61 61 61 61 59 60 61 58 58 53 55 58 58
61 64 65 64 64 63 63 63 62 61 60 60 62 62 63 63 62 61 61 60 60 60 60 58 57 60 60 56 52 51 54 56
50 64 64 64 64 62 62 61 61 61 60 60 61 62 62 62 61 60 59 58 58 59 59 59 58 58 58 58 56 53 51 51
53 50 64 64 63 62 61 61 61 60 60 60 61 61 61 62 60 59 58 58 58 58 58 59 59 58 57 56 55 55 55 53
51 53 52 63 63 62 61 61 61 59 60 59 60 61 61 62 61 59 58 58 58 57 58 58 58 58 57 56 55 53 53 53
48 50 52 53 62 61 60 60 61 59 59 59 59 59 60 61 61 59 59 58 57 57 57 58 58 58 57 56 56 55 55 54
45 47 49 52 61 61 60 60 61 60 59 60 59 59 59 60 61 60 59 58 58 57 58 58 57 58 57 57 57 56 56 54

GFSFLT2_sfc_dewp_114.txt.gz
Dewpoint
68 68 70 70 70 70 69 70 70 70 71 71 71 70 70 70 70 70 70 70 70 70 69 68 68 68 67 66 65 65 65 65
67 67 68 69 70 69 69 69 68 68 70 70 69 69 69 69 69 69 69 69 69 69 68 68 68 67 65 65 65 64 64 65
67 67 67 66 67 69 69 69 68 67 68 68 67 68 68 68 68 68 68 68 68 68 68 67 66 65 65 64 65 64 65 65
67 67 66 66 67 68 67 69 68 68 67 67 67 67 67 68 67 67 67 67 67 67 67 66 65 63 63 64 63 63 64 64
67 67 67 66 66 66 67 67 67 67 67 67 66 66 66 66 65 66 65 66 66 66 65 63 62 62 62 62 62 63 63 65
67 67 67 67 67 66 66 66 66 67 67 66 66 66 65 64 64 64 64 63 65 65 64 61 61 61 62 62 62 63 63 64
68 67 67 67 67 66 66 66 66 66 66 66 67 66 65 65 64 64 63 63 63 63 61 61 60 61 61 61 61 62 63 63
68 67 67 67 67 67 66 66 66 66 66 66 66 66 65 65 64 63 63 63 63 62 62 61 60 59 60 60 61 62 62 63
67 67 67 67 66 67 67 67 67 67 66 66 66 65 64 64 64 63 64 63 62 62 60 59 59 59 59 60 61 62 62 62
65 67 67 66 65 66 66 66 67 66 66 66 66 65 65 63 63 63 63 63 63 61 61 61 60 60 58 59 60 62 62 62
63 65 66 66 65 66 66 65 66 65 65 66 66 65 65 64 63 62 63 62 62 62 62 61 60 60 60 60 61 61 62 63
61 64 65 66 65 66 65 64 64 65 64 64 64 65 65 64 63 62 63 63 62 62 61 61 61 60 60 60 60 61 62 62
60 62 64 65 65 64 64 63 63 63 64 64 63 64 64 64 63 62 62 63 62 62 62 61 60 61 60 60 59 60 61 61
58 61 64 65 65 64 64 63 62 63 63 63 63 63 63 63 62 62 62 62 62 62 61 60 60 61 58 57 54 56 59 60
58 61 64 64 64 64 63 61 61 60 61 62 62 63 63 63 62 62 61 61 61 61 61 60 58 60 59 56 52 51 55 58
52 57 64 64 64 63 63 62 61 61 62 62 62 63 63 63 62 61 61 61 61 60 61 60 58 57 59 59 57 55 52 52
48 51 55 64 64 63 63 62 62 60 61 60 61 62 62 62 61 60 59 58 58 58 59 59 59 58 58 56 57 55 55 54
45 47 49 54 58 63 63 62 61 60 60 60 60 61 60 61 61 60 58 57 56 57 58 58 58 58 58 57 55 54 53 54
43 44 46 49 51 58 63 62 61 60 60 60 60 60 60 61 60 59 58 58 57 57 57 58 58 58 57 57 57 56 55 54
41 42 45 48 50 52 62 62 61 61 60 60 60 60 60 60 61 60 58 57 58 57 56 57 58 58 57 57 56 56 56 55

GFSFLT2_sfc_dewp_120.txt.gz
Dewpoint
68 69 70 69 69 70 69 69 70 70 70 70 71 70 70 70 70 70 71 71 71 70 69 68 68 68 67 66 65 66 65 66
67 68 68 68 70 68 68 69 69 69 70 69 69 69 69 70 69 70 70 70 70 69 68 68 68 67 66 65 65 66 65 65
67 68 68 69 69 69 68 69 69 68 69 69 68 69 69 69 69 68 69 69 69 68 68 67 66 66 66 64 64 64 64 64
66 67 67 67 67 68 69 69 69 69 69 68 67 66 67 68 68 68 68 68 68 68 67 66 65 65 64 65 63 63 63 64
66 66 66 66 66 67 68 67 68 67 67 67 67 66 66 66 66 67 66 67 66 66 66 65 63 62 62 63 63 62 63 64
65 66 66 66 66 66 66 66 67 67 66 66 68 67 66 64 65 65 65 65 64 64 65 63 62 62 61 61 61 62 62 63
64 65 65 66 65 65 65 65 67 66 66 66 68 67 66 64 63 64 64 63 64 64 64 61 61 61 61 61 61 61 61 63
63 64 64 65 65 65 64 65 65 65 66 66 67 66 66 65 63 63 62 64 65 64 63 61 60 60 60 60 60 61 61 62
64 64 64 64 64 64 64 65 65 64 64 65 65 66 65 65 64 63 62 62 63 63 61 59 59 59 59 60 61 61 61 61
65 64 64 64 64 64 64 64 64 64 64 65 65 65 65 64 64 63 62 62 61 61 61 60 58 58 58 59 59 60 60 60
66 65 64 64 64 64 64 63 64 64 64 64 65 65 64 64 64 63 62 62 62 61 61 61 60 59 58 57 58 59 60 61
65 66 66 65 64 64 64 64 64 64 64 64 64 65 64 64 63 62 63 63 62 62 61 61 61 60 60 59 59 59 60 60
61 65 66 66 65 64 64 63 64 65 65 64 64 64 64 63 63 62 63 63 62 61 62 61 60 61 59 59 59 60 60 61
49 59 65 66 66 65 64 64 65 65 65 65 65 65 64 64 63 62 63 63 63 62 62 60 60 61 58 57 55 57 59 60
46 50 61 65 66 66 63 63 62 63 63 64 64 65 64 64 63 63 63 63 63 62 62 61 59 60 60 57 53 52 55 59
44 47 52 60 65 65 63 63 62 63 63 64 64 64 64 64 63 63 63 63 63 62 62 62 60 58 59 59 57 56 53 52
43 46 50 52 55 64 63 63 63 61 62 63 64 63 63 63 63 62 62 62 62 61 62 61 61 59 59 58 57 56 56 54
41 43 45 49 52 54 58 62 60 60 61 62 62 62 62 62 62 62 62 62 62 62 61 61 60 60 59 58 57 56 55 54
40 42 44 45 47 50 52 55 59 61 61 62 61 61 61 62 62 62 62 62 62 61 61 60 60 59 58 58 58 57 56 56
38 39 41 42 44 45 48 51 55 59 62 61 61 61 61 62 62 62 62 61 61 60 60 60 60 59 58 58 57 57 57 56

GFSFLT2_sfc_dewp_123.txt.gz
Dewpoint
71 71 71 70 70 70 69 69 70 70 71 71 71 71 70 71 71 71 71 71 70 69 69 68 68 68 67 66 66 66 67 68
70 71 71 71 72 69 68 68 69 69 70 70 69 69 70 70 70 70 70 71 70 69 68 68 68 67 66 65 65 66 66 66
70 70 70 71 70 70 69 69 68 68 69 69 68 70 70 70 68 69 70 70 69 68 68 67 67 66 66 65 65 66 66 65
68 69 69 69 68 69 70 70 70 70 70 70 70 70 70 69 68 68 68 68 68 68 67 66 66 68 67 65 65 66 65 66
66 68 68 68 67 67 69 69 69 69 70 71 71 70 71 70 71 69 69 68 68 67 67 67 67 66 67 67 65 65 64 65
65 67 67 67 67 66 67 67 67 68 68 69 69 69 70 70 70 70 69 68 69 67 67 67 67 66 66 66 66 65 64 64
64 66 66 65 66 66 66 66 67 67 67 68 68 68 68 69 69 70 69 70 68 67 66 67 66 66 65 64 64 64 64 64
64 65 66 66 66 66 65 66 67 67 67 68 68 68 67 68 68 69 68 69 68 67 66 66 66 65 64 63 63 63 63 64
63 65 66 66 66 66 65 65 65 65 66 67 68 68 67 67 66 67 68 68 68 67 65 65 65 64 63 63 63 63 62 62
63 63 65 66 66 66 65 65 65 64 65 65 66 66 67 66 65 66 67 66 66 64 63 63 65 64 64 63 63 63 62 62
64 64 64 65 66 65 66 66 64 64 65 65 65 66 66 65 65 65 66 66 65 63 63 63 62 62 63 63 63 62 62 61
64 65 65 65 64 65 65 65 65 66 65 65 66 64 65 66 65 65 65 64 64 64 63 63 62 62 61 62 62 62 62 62
63 66 66 64 63 64 63 63 64 65 64 65 65 66 65 66 65 64 64 64 64 64 63 62 62 62 61 60 61 62 61 62
50 60 66 66 64 64 64 64 64 66 65 64 65 65 66 66 65 64 64 64 64 64 62 61 62 62 60 59 57 59 60 62
48 51 56 66 66 66 66 66 66 65 65 64 64 65 66 66 65 64 64 64 63 62 62 62 60 62 62 60 56 55 57 60
47 52 55 58 65 66 65 64 63 64 64 64 64 65 65 66 65 64 64 64 64 63 64 64 63 60 62 62 61 58 55 55
46 50 51 53 58 62 65 64 66 65 65 64 65 65 66 66 65 65 65 64 64 63 63 64 63 61 60 60 60 59 59 56
44 46 46 49 51 53 56 63 64 64 65 64 63 65 65 65 64 64 64 64 64 63 64 64 63 62 61 60 59 57 56 57
40 42 43 45 47 48 50 52 55 59 64 64 64 64 63 64 64 64 64 64 63 64 63 64 63 62 62 61 61 60 59 58
38 40 41 42 44 45 47 50 52 54 57 61 63 63 64 63 63 64 64 63 63 63 63 63 63 62 62 61 60 60 60 58

GFSFLT2_sfc_dewp_129.txt.gz
Dewpoint
73 71 70 70 70 70 69 70 70 71 71 72 72 71 71 71 71 71 72 70 70 71 69 69 69 69 69 68 68 68 67 63
72 70 70 70 70 69 69 69 69 70 71 71 70 70 71 71 71 71 71 70 70 70 69 69 69 68 68 67 67 67 65 65
72 70 69 69 69 69 69 69 69 69 70 70 69 69 70 70 69 69 70 70 69 69 68 68 68 67 67 67 67 63 65 64
67 70 68 69 66 69 69 68 67 68 69 70 69 68 68 66 67 69 69 69 69 68 68 67 67 64 65 65 64 64 60 64
66 69 69 69 67 66 67 66 66 67 69 69 69 67 70 68 68 69 69 69 67 67 67 65 64 65 63 63 62 63 60 64
62 65 68 70 65 64 65 65 67 67 67 71 70 68 70 69 67 69 68 67 66 65 64 65 64 64 63 65 65 63 62 63
46 65 67 68 70 64 65 67 65 66 67 69 69 66 69 68 69 68 67 66 66 66 64 63 64 64 63 63 64 64 63 60
43 58 67 67 67 69 67 67 66 68 67 67 71 68 69 67 69 69 68 67 68 68 65 65 65 64 63 62 62 64 63 64
43 58 66 67 68 67 66 63 65 66 67 69 70 69 69 68 67 68 65 68 69 69 67 67 64 65 64 64 61 61 60 62
38 38 63 68 67 66 65 63 65 63 65 66 68 69 68 68 66 66 69 67 68 67 66 65 64 64 64 64 62 63 63 62
33 44 48 66 68 67 67 67 65 63 63 64 68 69 69 68 67 67 70 67 67 67 66 65 63 62 64 63 62 63 63 61
45 47 52 63 66 67 65 65 64 64 62 63 66 67 68 68 67 67 67 66 66 67 66 66 64 62 59 62 64 64 63 63
46 48 53 53 63 66 64 63 64 64 63 63 65 65 68 68 66 66 67 66 66 67 66 65 64 64 64 63 64 65 63 62
46 46 49 51 59 63 65 63 63 63 63 64 64 65 68 66 66 65 66 65 66 66 65 65 65 65 62 61 58 57 61 62
44 46 49 51 56 61 62 63 63 62 62 61 64 65 66 66 66 66 66 65 65 65 65 64 62 64 63 59 55 52 52 59
43 45 49 53 58 61 63 61 59 60 60 61 61 65 64 66 66 66 66 66 65 65 64 64 63 62 64 63 63 58 53 51
42 44 47 50 53 58 65 63 61 60 61 62 64 65 65 65 67 66 67 66 66 66 65 64 64 62 61 61 62 62 60 56
42 43 44 49 51 53 60 65 63 62 63 64 66 67 66 66 66 66 67 67 67 66 66 64 64 64 63 62 60 59 58 58
42 42 42 45 48 50 53 56 60 60 58 59 64 65 65 65 66 67 67 67 67 66 66 65 65 64 63 63 62 59 59 58
40 42 42 43 45 47 49 51 54 56 56 58 58 60 62 66 67 66 66 65 65 65 66 65 65 65 64 63 63 62 60 58

GFSFLT2_sfc_dewp_132.txt.gz
Dewpoint
72 70 70 70 70 70 70 70 71 71 71 72 72 72 71 71 71 72 72 71 71 70 69 69 69 69 69 68 67 68 67 68
72 71 70 70 70 69 69 70 70 70 71 71 71 71 71 71 71 71 71 70 70 70 69 68 68 68 68 67 67 67 66 65
71 70 70 70 69 69 69 70 70 70 70 70 69 71 71 70 70 69 70 70 70 69 68 68 68 67 67 67 66 65 64 64
71 71 69 69 66 69 69 69 69 70 71 71 71 70 70 68 68 69 70 69 69 68 68 67 67 66 66 66 65 65 64 65
68 71 70 69 67 69 68 68 68 68 69 70 70 69 69 68 68 69 70 69 68 67 67 67 66 65 65 65 64 65 64 64
39 70 69 71 68 68 68 67 68 68 68 70 69 69 69 68 69 69 70 69 68 66 66 66 66 65 65 65 65 65 65 68
46 55 69 68 68 68 68 67 68 68 68 69 69 68 68 68 68 69 68 68 67 66 65 65 65 65 64 64 64 62 63 65
37 46 59 68 68 68 68 69 69 68 68 68 69 68 68 68 68 68 67 67 67 67 65 65 65 63 64 63 64 63 61 65
36 42 50 68 68 67 66 69 66 68 68 70 69 69 68 68 68 68 68 67 67 67 67 66 65 66 64 64 63 63 63 62
38 35 44 53 67 68 66 66 66 66 67 68 69 69 68 68 68 67 68 68 67 66 65 64 64 64 63 64 63 62 62 61
44 48 50 53 56 65 66 67 66 65 67 67 68 68 69 69 66 68 68 67 67 66 66 65 64 64 63 64 63 63 63 62
45 47 49 52 51 56 66 67 66 66 64 65 67 68 67 68 67 68 69 66 66 67 66 66 64 63 62 62 63 63 64 64
44 46 47 47 48 52 58 64 65 66 63 64 66 67 67 67 68 67 66 67 66 66 66 64 64 64 62 62 63 63 63 63
41 43 44 45 47 51 56 61 65 65 64 63 64 68 67 66 68 66 65 64 66 65 65 64 64 64 61 60 57 60 62 63
39 41 42 44 47 50 55 59 63 64 64 62 64 65 68 67 66 66 65 65 63 64 64 63 62 63 64 59 56 54 55 61
38 40 42 44 47 49 52 54 57 62 63 63 62 64 66 67 66 65 66 64 63 63 65 63 62 60 63 63 62 61 55 54
37 39 42 43 45 49 52 54 59 62 62 62 62 63 64 66 65 65 66 64 64 65 65 64 63 61 61 61 61 61 61 58
35 37 41 42 43 49 51 53 58 62 61 63 62 64 64 65 65 65 65 65 65 64 65 64 63 62 62 60 60 59 59 59
35 36 40 42 43 48 50 51 56 56 58 58 57 58 61 63 66 66 66 66 66 66 65 64 64 62 62 62 61 61 60 59
34 35 39 42 43 45 47 48 50 51 52 52 52 57 57 57 59 65 65 65 66 66 65 65 64 63 63 63 62 62 61 59

GFSFLT2_sfc_dewp_135.txt.gz
Dewpoint
70 69 70 70 70 70 70 71 71 71 71 71 72 71 71 71 71 71 72 71 71 70 69 69 69 69 68 67 67 67 66 68
69 69 69 69 69 69 69 69 70 70 70 70 70 70 70 70 70 71 71 70 70 69 69 68 68 68 67 67 66 66 65 67
70 69 69 69 68 69 69 70 69 69 70 70 69 71 70 70 70 69 70 69 69 69 68 67 67 67 67 66 66 65 65 67
69 69 69 68 67 68 68 69 69 69 70 70 70 70 70 70 69 68 69 69 69 68 67 67 67 66 66 66 65 65 65 66
63 69 69 69 67 68 68 68 68 69 69 70 70 69 69 69 69 68 69 69 68 67 67 67 66 65 65 65 65 65 65 66
29 54 69 69 69 68 67 66 67 68 69 69 69 68 68 67 67 68 69 69 67 66 66 66 66 65 65 65 64 65 66 66
40 36 52 65 68 69 68 66 67 66 67 69 69 68 67 67 68 68 69 68 68 66 66 65 65 65 65 64 63 64 65 65
42 44 46 48 57 66 69 69 68 67 67 67 69 67 67 67 67 68 68 68 67 66 65 65 64 64 64 63 63 62 64 65
42 44 45 47 50 55 61 69 69 68 67 67 68 68 67 68 67 67 67 67 66 66 65 65 64 64 62 63 62 63 62 64
39 42 44 46 47 52 55 59 67 68 68 68 68 68 67 68 67 67 67 67 66 66 65 64 63 64 63 64 63 62 62 64
38 39 41 44 45 47 52 56 60 67 68 68 68 68 67 67 67 67 67 67 66 65 64 63 63 63 62 63 63 61 62 62
36 38 40 41 43 45 48 54 57 63 67 67 67 68 68 67 67 67 67 66 66 66 64 64 63 63 63 62 62 62 62 62
35 36 38 39 41 42 45 47 54 57 62 65 67 67 67 67 67 66 67 65 66 66 64 63 62 62 61 60 61 62 62 62
33 34 37 38 40 42 45 48 52 55 57 61 67 67 66 66 67 67 67 66 65 65 65 62 62 62 60 58 56 59 61 62
32 34 36 38 40 42 45 48 50 53 55 60 63 65 67 65 65 67 65 65 65 65 65 64 62 62 62 59 54 53 56 60
32 33 35 37 41 42 44 45 45 49 52 55 58 64 66 66 65 66 66 64 63 64 64 63 62 60 61 62 59 58 53 53
31 33 35 36 41 43 44 46 50 50 54 57 61 63 65 66 65 65 65 64 63 62 62 62 62 62 60 59 61 60 59 57
32 34 34 36 38 43 44 47 49 51 54 58 60 62 63 65 66 65 65 64 63 63 63 63 63 62 60 60 59 59 58 58
33 34 34 35 37 42 44 46 47 53 55 58 57 56 56 55 61 60 62 65 64 63 64 64 64 63 61 61 61 59 59 59
34 33 33 34 36 40 44 44 46 50 49 49 51 55 52 51 50 55 53 53 64 64 64 65 64 63 62 61 61 60 60 60

GFSFLT2_sfc_dewp_138.txt.gz
Dewpoint
69 69 70 70 70 70 70 70 70 70 71 71 71 71 71 71 71 71 71 71 71 69 69 68 68 68 68 67 66 66 66 67
68 68 69 69 69 69 69 69 69 69 70 70 69 69 70 70 70 71 71 71 70 69 68 68 68 67 67 66 65 66 65 66
69 68 68 68 68 69 69 69 69 69 69 69 69 70 70 70 69 69 70 70 69 69 68 67 67 67 67 66 65 65 66 66
43 49 64 68 68 68 68 69 69 69 70 70 70 69 69 70 69 68 69 69 68 68 67 67 66 66 66 66 65 65 66 65
44 46 51 54 63 68 67 67 69 69 69 70 69 69 69 69 69 69 69 68 68 67 66 66 65 65 65 65 65 65 65 65
41 44 48 50 55 57 65 67 67 68 69 69 69 69 68 68 68 68 68 69 67 66 65 65 65 65 65 64 64 64 65 65
39 40 44 45 50 53 56 58 67 67 68 69 69 69 68 68 67 67 68 68 67 65 65 65 65 65 65 65 64 64 65 65
36 38 40 42 44 47 51 57 59 67 67 68 69 69 68 68 67 67 68 68 68 66 65 64 64 64 64 64 63 64 64 64
35 36 38 40 42 44 46 52 56 58 67 67 68 68 67 67 67 67 67 68 67 66 65 64 64 63 64 64 63 63 63 64
33 35 36 37 39 42 43 47 52 58 61 67 67 68 67 67 67 67 67 67 67 66 65 64 64 63 63 63 63 62 63 64
30 33 35 36 37 40 42 44 50 53 57 59 64 67 67 66 67 67 67 67 67 66 65 64 64 63 63 62 64 62 62 64
29 31 33 34 37 38 41 43 46 49 54 58 58 61 67 67 67 67 67 67 66 66 65 64 63 62 62 62 62 62 60 62
29 31 32 34 35 37 39 41 44 47 50 52 54 58 63 67 67 67 67 66 66 65 65 63 62 62 60 59 60 60 60 61
29 31 32 33 35 37 39 41 44 47 48 51 54 56 61 66 66 67 66 66 66 65 64 63 63 62 60 59 58 58 60 61
29 31 32 34 35 36 39 42 42 44 46 48 49 54 56 63 66 67 66 66 65 65 65 64 62 61 61 59 56 55 56 59
30 31 31 33 35 37 40 41 41 43 46 47 48 52 57 59 62 65 66 66 65 65 65 64 64 62 60 60 57 56 53 51
30 32 32 32 34 37 39 42 44 46 48 48 49 51 55 60 62 64 65 66 66 65 65 65 64 63 62 61 60 58 58 56
31 32 33 33 34 36 40 42 44 45 46 47 50 53 58 58 57 58 62 65 65 65 65 65 63 62 62 60 60 59 58 56
32 32 34 33 35 36 40 42 43 44 46 49 53 55 54 53 55 56 56 54 63 64 63 63 62 62 62 61 60 60 59 59
31 33 33 34 35 35 39 40 42 43 44 46 47 51 49 49 51 53 53 52 54 57 62 62 62 62 62 62 61 60 59 59

GFSFLT2_sfc_dewp_141.txt.gz
Dewpoint
68 68 69 69 69 69 69 70 70 70 70 70 71 71 70 71 71 71 71 71 71 69 68 68 68 68 67 67 66 66 66 67
47 49 51 66 68 68 68 69 69 69 70 70 69 69 70 70 70 70 71 71 70 69 68 68 68 67 67 66 65 66 65 66
44 48 48 50 58 68 69 68 69 69 69 69 68 69 69 69 69 69 70 70 70 69 68 67 66 66 66 66 65 65 64 66
40 41 47 48 51 56 61 67 68 68 69 69 70 70 69 69 69 68 69 69 69 68 67 66 66 65 65 66 64 64 65 65
37 39 44 46 48 53 54 58 63 68 68 69 69 68 69 69 69 69 69 69 68 67 66 66 65 64 64 64 64 64 64 65
35 37 39 41 45 47 51 55 58 58 66 68 69 68 68 68 68 68 68 68 68 67 66 65 64 64 64 63 64 63 64 65
33 34 37 38 39 43 47 50 55 58 59 67 69 68 68 67 67 67 68 68 67 66 65 64 64 64 64 64 63 63 64 64
31 32 35 36 38 39 42 46 52 53 57 59 64 68 68 68 67 67 67 66 66 66 65 64 64 64 64 64 64 63 64 64
30 31 33 34 34 36 38 42 46 48 54 58 59 63 67 68 67 67 67 66 66 66 65 64 63 63 63 64 64 63 63 64
30 30 32 32 33 35 37 39 43 46 50 52 56 57 61 67 67 67 67 67 66 65 65 64 63 62 62 63 63 63 62 64
28 30 31 33 34 35 37 40 42 45 48 49 53 57 59 58 65 66 67 67 66 65 65 65 63 62 62 62 63 62 62 63
29 30 32 32 33 34 36 39 40 43 46 48 50 53 54 57 58 65 66 67 66 66 65 65 64 63 62 62 62 63 62 63
29 30 31 32 33 34 34 35 37 40 44 47 47 49 53 57 57 60 66 65 66 66 65 64 63 63 60 59 59 60 60 60
29 29 31 31 32 33 34 36 39 40 41 44 47 48 52 57 59 58 64 65 65 65 65 64 63 62 60 58 58 59 60 60
29 30 31 32 32 32 34 36 38 39 41 41 45 47 49 51 54 55 58 64 64 65 65 64 62 62 62 59 56 55 56 58
29 30 31 33 34 34 35 36 37 39 41 42 46 47 48 50 53 57 56 61 62 63 65 64 63 61 62 61 57 56 54 52
29 30 31 32 33 35 36 36 39 41 43 44 44 46 49 50 52 54 57 58 62 61 62 64 64 62 62 62 58 56 55 52
29 30 31 32 34 36 37 37 39 40 41 44 45 47 49 52 54 57 58 58 58 61 64 63 64 64 63 62 61 58 57 56
30 31 31 31 32 33 36 37 37 38 42 43 44 46 51 50 54 56 55 56 59 61 63 64 64 64 62 62 62 61 59 59
30 30 30 32 34 34 34 36 36 38 39 39 42 43 46 46 51 54 53 55 56 60 62 58 62 61 60 61 61 60 60 59

GFSFLT2_sfc_dewp_144.txt.gz
Dewpoint
44 48 50 56 64 67 68 69 68 70 70 70 71 71 70 71 71 71 71 71 71 70 69 68 68 68 67 67 66 67 66 66
39 44 45 47 54 58 62 67 68 68 69 69 69 69 70 70 70 70 71 71 71 69 68 68 68 67 67 66 65 66 66 66
36 41 40 43 47 51 55 59 64 67 68 68 68 69 69 69 69 69 70 70 70 69 68 67 66 66 66 66 65 65 65 66
35 36 39 41 41 47 49 53 57 60 66 68 68 69 69 69 69 68 69 69 69 68 68 66 66 66 66 66 65 65 64 65
33 33 38 38 39 43 45 48 52 57 57 60 67 68 69 69 69 69 69 69 69 68 67 66 65 65 64 64 64 64 64 65
31 32 36 35 38 40 44 45 46 50 54 57 61 67 67 68 68 68 68 69 68 68 67 65 64 64 64 64 64 64 64 65
30 31 32 34 34 35 39 42 44 48 50 52 59 60 65 67 68 68 67 67 67 66 66 65 64 64 64 64 63 63 63 64
30 30 31 32 33 34 35 40 43 46 47 48 55 58 58 62 67 67 67 67 66 66 65 65 64 64 64 64 63 63 63 64
29 30 31 32 33 34 35 37 40 43 44 46 50 51 56 58 60 66 66 67 66 66 65 65 63 63 63 63 64 64 63 63
29 30 32 32 33 34 34 36 39 41 44 45 47 49 51 56 59 58 65 67 66 65 65 64 63 63 62 62 63 64 64 63
29 30 31 32 33 34 35 36 37 40 42 45 46 48 50 53 56 57 59 64 66 65 64 64 62 63 62 62 62 63 63 63
29 30 31 32 33 33 34 35 36 37 39 41 45 47 48 49 50 56 58 59 64 65 64 64 63 62 62 62 62 62 63 63
29 30 31 32 32 32 32 32 34 35 38 40 42 44 46 48 50 53 56 57 59 64 65 63 64 64 61 61 60 61 62 62
29 29 30 31 32 33 33 32 34 35 37 40 42 43 46 48 50 52 57 57 59 59 62 64 63 63 61 60 58 59 60 61
29 30 30 31 31 32 34 35 35 36 36 38 40 42 45 47 48 49 50 53 53 61 63 64 62 63 63 59 57 56 58 59
29 30 30 30 30 32 34 34 35 37 38 39 41 44 45 44 46 48 49 52 54 60 60 58 61 61 62 62 58 57 55 54
29 29 30 30 30 32 33 34 36 37 39 40 42 44 45 47 48 50 50 51 55 58 61 60 58 61 61 61 59 56 55 52
29 30 29 30 30 31 33 34 34 35 37 39 40 42 45 46 50 51 52 52 54 55 62 61 61 62 62 62 60 58 56 55
30 30 29 29 30 30 33 34 34 35 35 36 38 40 42 44 45 47 53 55 56 57 59 60 61 61 62 61 61 60 60 58
30 30 29 29 30 31 34 34 33 34 34 34 35 37 38 41 43 47 53 54 56 57 57 59 60 60 61 57 61 60 60 59